Time,TemperatureF,DewpointF,PressureIn,WindDirection,WindDirectionDegrees,WindSpeedMPH,WindSpeedGustMPH,Humidity,HourlyPrecipIn,Conditions,Clouds,dailyrainin,SoftwareType,DateUTC
2013-07-10 00:00:00,74.4,72.2,29.98,South,181,0.0,0.0,93,0.00,,,0.00,VWS V14.01,2013-07-10 04:00:00,
2013-07-10 00:01:00,74.2,72.1,29.99,South,182,0.0,0.0,93,0.00,,,0.14,VWS V14.01,2013-07-10 04:01:00,
2013-07-10 00:02:00,74.2,72.1,29.99,South,181,0.0,0.0,93,0.00,,,0.14,VWS V14.01,2013-07-10 04:02:00,
2013-07-10 00:05:00,74.4,72.2,29.98,South,181,0.0,0.0,93,0.00,,,0.00,VWS V14.01,2013-07-10 04:05:00,
2013-07-10 00:06:00,74.4,72.2,29.98,South,182,0.0,0.0,93,0.00,,,0.00,VWS V14.01,2013-07-10 04:06:00,
2013-07-10 00:07:00,74.4,72.2,29.98,South,181,0.0,0.0,93,0.00,,,0.00,VWS V14.01,2013-07-10 04:07:00,
2013-07-10 00:10:00,74.6,72.8,29.98,South,182,0.0,0.0,94,0.00,,,0.00,VWS V14.01,2013-07-10 04:10:00,
2013-07-10 00:11:00,74.6,72.4,29.98,South,181,0.0,0.0,93,0.00,,,0.00,VWS V14.01,2013-07-10 04:11:00,
2013-07-10 00:13:00,74.6,72.4,29.98,South,182,0.0,5.0,93,0.00,,,0.00,VWS V14.01,2013-07-10 04:13:00,
2013-07-10 00:15:00,74.7,72.9,29.98,South,182,0.0,5.0,94,0.00,,,0.00,VWS V14.01,2013-07-10 04:15:00,
2013-07-10 00:16:00,74.7,72.6,29.98,South,182,0.0,5.0,93,0.00,,,0.00,VWS V14.01,2013-07-10 04:16:00,
2013-07-10 00:21:00,74.7,72.6,29.98,South,181,0.0,5.0,93,0.00,,,0.00,VWS V14.01,2013-07-10 04:21:00,
2013-07-10 00:22:00,74.7,72.9,29.98,South,182,0.0,5.0,94,0.00,,,0.00,VWS V14.01,2013-07-10 04:22:00,
2013-07-10 00:24:00,74.7,72.6,29.98,South,181,0.0,5.0,93,0.00,,,0.00,VWS V14.01,2013-07-10 04:24:00,
2013-07-10 00:26:00,74.7,72.9,29.98,South,181,0.0,5.0,94,0.00,,,0.00,VWS V14.01,2013-07-10 04:26:00,
2013-07-10 00:27:00,74.7,72.9,29.98,SSE,161,0.0,6.0,94,0.00,,,0.00,VWS V14.01,2013-07-10 04:27:00,
2013-07-10 00:30:00,73.9,71.4,29.99,South,186,4.0,9.0,92,0.00,,,0.00,VWS V14.01,2013-07-10 04:30:00,
2013-07-10 00:31:00,74.4,72.2,29.98,South,190,2.0,7.0,93,0.00,,,0.00,VWS V14.01,2013-07-10 04:31:00,
2013-07-10 00:33:00,74.0,71.5,29.98,South,188,5.0,9.0,92,0.00,,,0.00,VWS V14.01,2013-07-10 04:33:00,
2013-07-10 00:35:00,73.9,71.4,29.99,South,186,4.0,9.0,92,0.00,,,0.00,VWS V14.01,2013-07-10 04:35:00,
2013-07-10 00:37:00,73.5,71.0,29.99,South,186,5.0,7.0,92,0.00,,,0.00,VWS V14.01,2013-07-10 04:37:00,
2013-07-10 00:39:00,73.3,70.8,29.99,South,186,1.0,7.0,92,0.00,,,0.00,VWS V14.01,2013-07-10 04:39:00,
2013-07-10 00:40:00,73.3,71.2,29.99,South,186,2.0,7.0,93,0.00,,,0.00,VWS V14.01,2013-07-10 04:40:00,
2013-07-10 00:42:00,73.2,71.1,29.99,South,186,0.0,7.0,93,0.00,,,0.00,VWS V14.01,2013-07-10 04:42:00,
2013-07-10 00:43:00,73.2,71.1,29.99,South,186,0.0,7.0,93,0.00,,,0.00,VWS V14.01,2013-07-10 04:43:00,
2013-07-10 00:45:00,73.2,71.1,29.99,South,186,0.0,7.0,93,0.00,,,0.00,VWS V14.01,2013-07-10 04:45:00,
2013-07-10 00:46:00,73.2,71.1,29.99,South,186,0.0,7.0,93,0.00,,,0.00,VWS V14.01,2013-07-10 04:46:00,
2013-07-10 00:48:00,73.2,71.1,29.99,South,186,0.0,7.0,93,0.00,,,0.00,VWS V14.01,2013-07-10 04:48:00,
2013-07-10 00:50:00,73.2,71.1,29.98,South,186,0.0,7.0,93,0.00,,,0.00,VWS V14.01,2013-07-10 04:50:00,
2013-07-10 00:51:00,73.2,71.1,29.98,South,186,0.0,7.0,93,0.00,,,0.00,VWS V14.01,2013-07-10 04:51:00,
2013-07-10 00:53:00,73.3,71.2,29.98,South,186,0.0,7.0,93,0.00,,,0.00,VWS V14.01,2013-07-10 04:53:00,
2013-07-10 00:55:00,73.3,71.2,29.98,South,186,2.0,7.0,93,0.00,,,0.00,VWS V14.01,2013-07-10 04:55:00,
2013-07-10 00:56:00,73.5,71.4,29.98,South,186,2.0,7.0,93,0.00,,,0.00,VWS V14.01,2013-07-10 04:56:00,
2013-07-10 00:58:00,73.7,71.9,29.98,SSW,193,0.0,7.0,94,0.00,,,0.00,VWS V14.01,2013-07-10 04:58:00,
2013-07-10 01:00:00,73.9,72.1,29.98,SSW,193,3.0,7.0,94,0.00,,,0.00,VWS V14.01,2013-07-10 05:00:00,
2013-07-10 01:01:00,74.0,72.2,29.98,SSW,193,5.0,7.0,94,0.00,,,0.00,VWS V14.01,2013-07-10 05:01:00,
2013-07-10 01:03:00,74.2,72.4,29.98,SSW,193,4.0,7.0,94,0.00,,,0.00,VWS V14.01,2013-07-10 05:03:00,
2013-07-10 01:05:00,74.4,72.6,29.98,SW,223,7.0,10.0,94,0.00,,,0.00,VWS V14.01,2013-07-10 05:05:00,
2013-07-10 01:08:00,74.6,72.8,29.98,WSW,239,11.0,12.0,94,0.00,,,0.00,VWS V14.01,2013-07-10 05:08:00,
2013-07-10 01:10:00,74.6,72.8,29.98,SSW,209,5.0,12.0,94,0.00,,,0.00,VWS V14.01,2013-07-10 05:10:00,
2013-07-10 01:13:00,74.6,72.4,29.98,SSW,211,5.0,16.0,93,0.00,,,0.00,VWS V14.01,2013-07-10 05:13:00,
2013-07-10 01:14:00,74.6,72.4,29.98,SW,232,8.0,16.0,93,0.00,,,0.00,VWS V14.01,2013-07-10 05:14:00,
2013-07-10 01:15:00,74.6,72.4,29.98,SSW,212,5.0,16.0,93,0.00,,,0.00,VWS V14.01,2013-07-10 05:15:00,
2013-07-10 01:16:00,74.6,72.4,29.98,SW,216,4.0,16.0,93,0.00,,,0.00,VWS V14.01,2013-07-10 05:16:00,
2013-07-10 01:19:00,74.6,72.4,29.98,SSW,212,4.0,16.0,93,0.00,,,0.00,VWS V14.01,2013-07-10 05:19:00,
2013-07-10 01:21:00,74.6,72.4,29.97,SSW,205,1.0,16.0,93,0.00,,,0.00,VWS V14.01,2013-07-10 05:21:00,
2013-07-10 01:25:00,74.6,72.4,29.97,SW,221,6.0,16.0,93,0.00,,,0.00,VWS V14.01,2013-07-10 05:25:00,
2013-07-10 01:26:00,74.6,72.4,29.97,SW,219,6.0,16.0,93,0.00,,,0.00,VWS V14.01,2013-07-10 05:26:00,
2013-07-10 01:28:00,74.6,72.1,29.97,SW,217,5.0,16.0,92,0.00,,,0.00,VWS V14.01,2013-07-10 05:28:00,
2013-07-10 01:29:00,74.6,72.1,29.97,SW,223,8.0,16.0,92,0.00,,,0.00,VWS V14.01,2013-07-10 05:29:00,
2013-07-10 01:30:00,74.6,72.1,29.97,SSW,202,7.0,16.0,92,0.00,,,0.00,VWS V14.01,2013-07-10 05:30:00,
2013-07-10 01:32:00,74.4,71.9,29.97,SSW,205,6.0,16.0,92,0.00,,,0.00,VWS V14.01,2013-07-10 05:32:00,
2013-07-10 01:35:00,74.4,71.9,29.97,SE,140,4.0,16.0,92,0.00,,,0.00,VWS V14.01,2013-07-10 05:35:00,
2013-07-10 01:37:00,74.4,71.9,29.97,SSE,166,0.0,13.0,92,0.01,,,0.01,VWS V14.01,2013-07-10 05:37:00,
2013-07-10 01:40:00,74.2,71.7,29.97,South,174,5.0,13.0,92,0.01,,,0.01,VWS V14.01,2013-07-10 05:40:00,
2013-07-10 01:42:00,74.0,71.5,29.97,South,185,5.0,13.0,92,0.01,,,0.01,VWS V14.01,2013-07-10 05:42:00,
2013-07-10 01:43:00,74.0,71.5,29.97,South,172,2.0,13.0,92,0.01,,,0.01,VWS V14.01,2013-07-10 05:43:00,
2013-07-10 01:44:00,73.9,71.4,29.97,SSE,157,7.0,13.0,92,0.01,,,0.01,VWS V14.01,2013-07-10 05:44:00,
2013-07-10 01:47:00,73.3,70.5,29.97,SSE,150,2.0,13.0,91,0.01,,,0.01,VWS V14.01,2013-07-10 05:47:00,
2013-07-10 01:49:00,73.2,70.7,29.96,South,170,4.0,13.0,92,0.01,,,0.01,VWS V14.01,2013-07-10 05:49:00,
2013-07-10 01:50:00,73.0,70.5,29.96,South,174,7.0,13.0,92,0.01,,,0.01,VWS V14.01,2013-07-10 05:50:00,
2013-07-10 01:51:00,73.0,70.5,29.96,South,175,5.0,13.0,92,0.01,,,0.01,VWS V14.01,2013-07-10 05:51:00,
2013-07-10 01:53:00,72.8,70.3,29.96,SSE,157,5.0,13.0,92,0.01,,,0.01,VWS V14.01,2013-07-10 05:53:00,
2013-07-10 01:54:00,72.8,70.3,29.96,South,178,5.0,13.0,92,0.01,,,0.01,VWS V14.01,2013-07-10 05:54:00,
2013-07-10 01:57:00,72.7,70.2,29.96,SSE,157,6.0,13.0,92,0.01,,,0.01,VWS V14.01,2013-07-10 05:57:00,
2013-07-10 01:59:00,72.7,70.2,29.96,South,176,5.0,13.0,92,0.01,,,0.01,VWS V14.01,2013-07-10 05:59:00,
2013-07-10 02:00:00,72.7,70.2,29.96,SSE,152,4.0,13.0,92,0.01,,,0.01,VWS V14.01,2013-07-10 06:00:00,
2013-07-10 02:04:00,72.7,70.2,29.96,SSE,147,2.0,13.0,92,0.01,,,0.01,VWS V14.01,2013-07-10 06:04:00,
2013-07-10 02:05:00,72.7,70.2,29.96,SSE,148,0.0,13.0,92,0.01,,,0.01,VWS V14.01,2013-07-10 06:05:00,
2013-07-10 02:06:00,72.7,70.2,29.96,SSE,148,0.0,2.0,92,0.01,,,0.01,VWS V14.01,2013-07-10 06:06:00,
2013-07-10 02:09:00,72.7,70.2,29.96,SSE,148,0.0,2.0,92,0.01,,,0.01,VWS V14.01,2013-07-10 06:09:00,
2013-07-10 02:10:00,72.7,70.2,29.96,SSE,148,0.0,2.0,92,0.01,,,0.01,VWS V14.01,2013-07-10 06:10:00,
2013-07-10 02:11:00,72.7,70.2,29.96,SSE,148,0.0,2.0,92,0.01,,,0.01,VWS V14.01,2013-07-10 06:11:00,
2013-07-10 02:13:00,72.7,70.2,29.96,SSE,148,0.0,2.0,92,0.01,,,0.01,VWS V14.01,2013-07-10 06:13:00,
2013-07-10 02:16:00,72.7,70.6,29.96,SSE,148,0.0,2.0,93,0.01,,,0.01,VWS V14.01,2013-07-10 06:16:00,
2013-07-10 02:19:00,72.7,70.6,29.96,SSE,148,0.0,5.0,93,0.01,,,0.01,VWS V14.01,2013-07-10 06:19:00,
2013-07-10 02:20:00,72.7,70.6,29.96,SSW,193,6.0,7.0,93,0.01,,,0.01,VWS V14.01,2013-07-10 06:20:00,
2013-07-10 02:21:00,72.7,70.6,29.96,South,181,4.0,7.0,93,0.01,,,0.01,VWS V14.01,2013-07-10 06:21:00,
2013-07-10 02:24:00,72.7,70.6,29.96,South,181,0.0,7.0,93,0.01,,,0.01,VWS V14.01,2013-07-10 06:24:00,
2013-07-10 02:28:00,72.7,70.6,29.96,South,181,0.0,7.0,93,0.01,,,0.01,VWS V14.01,2013-07-10 06:28:00,
2013-07-10 02:29:00,72.7,70.6,29.96,South,181,1.0,7.0,93,0.01,,,0.01,VWS V14.01,2013-07-10 06:29:00,
2013-07-10 02:30:00,72.7,70.6,29.95,South,181,0.0,7.0,93,0.01,,,0.01,VWS V14.01,2013-07-10 06:30:00,
2013-07-10 02:31:00,72.7,70.6,29.96,South,181,0.0,7.0,93,0.01,,,0.01,VWS V14.01,2013-07-10 06:31:00,
2013-07-10 02:32:00,72.7,70.6,29.96,South,181,0.0,7.0,93,0.01,,,0.01,VWS V14.01,2013-07-10 06:32:00,
2013-07-10 02:34:00,72.7,70.6,29.95,South,181,0.0,7.0,93,0.01,,,0.01,VWS V14.01,2013-07-10 06:34:00,
2013-07-10 02:35:00,72.7,70.6,29.95,South,180,0.0,0.0,93,0.01,,,0.01,VWS V14.01,2013-07-10 06:35:00,
2013-07-10 02:37:00,72.7,70.6,29.95,South,172,0.0,4.0,93,0.01,,,0.01,VWS V14.01,2013-07-10 06:37:00,
2013-07-10 02:38:00,72.7,70.6,29.95,South,172,0.0,5.0,93,0.01,,,0.01,VWS V14.01,2013-07-10 06:38:00,
2013-07-10 02:39:00,72.7,70.6,29.95,South,173,0.0,5.0,93,0.01,,,0.01,VWS V14.01,2013-07-10 06:39:00,
2013-07-10 02:42:00,72.7,70.6,29.95,South,172,0.0,5.0,93,0.01,,,0.01,VWS V14.01,2013-07-10 06:42:00,
2013-07-10 02:44:00,72.5,70.4,29.95,South,171,0.0,5.0,93,0.01,,,0.01,VWS V14.01,2013-07-10 06:44:00,
2013-07-10 02:45:00,72.5,70.4,29.95,South,173,5.0,7.0,93,0.01,,,0.01,VWS V14.01,2013-07-10 06:45:00,
2013-07-10 02:48:00,72.5,70.4,29.95,South,174,0.0,7.0,93,0.01,,,0.01,VWS V14.01,2013-07-10 06:48:00,
2013-07-10 02:49:00,72.5,70.4,29.94,South,173,0.0,7.0,93,0.01,,,0.01,VWS V14.01,2013-07-10 06:49:00,
2013-07-10 02:50:00,72.5,70.4,29.94,SSE,164,0.0,7.0,93,0.01,,,0.01,VWS V14.01,2013-07-10 06:50:00,
2013-07-10 02:51:00,72.5,70.4,29.94,SSE,165,0.0,7.0,93,0.01,,,0.01,VWS V14.01,2013-07-10 06:51:00,
2013-07-10 02:54:00,72.3,70.2,29.94,SSE,163,0.0,7.0,93,0.01,,,0.01,VWS V14.01,2013-07-10 06:54:00,
2013-07-10 02:55:00,72.3,70.2,29.94,South,174,7.0,7.0,93,0.01,,,0.01,VWS V14.01,2013-07-10 06:55:00,
2013-07-10 02:56:00,72.3,70.2,29.94,South,174,0.0,7.0,93,0.01,,,0.01,VWS V14.01,2013-07-10 06:56:00,
2013-07-10 03:00:00,72.1,70.0,29.94,South,181,0.0,8.0,93,0.01,,,0.01,VWS V14.01,2013-07-10 07:00:00,
2013-07-10 03:01:00,72.1,70.0,29.94,South,180,0.0,8.0,93,0.01,,,0.01,VWS V14.01,2013-07-10 07:01:00,
2013-07-10 03:03:00,72.0,69.9,29.94,South,184,0.0,8.0,93,0.01,,,0.01,VWS V14.01,2013-07-10 07:03:00,
2013-07-10 03:05:00,72.0,69.9,29.94,South,182,3.0,5.0,93,0.00,,,0.01,VWS V14.01,2013-07-10 07:05:00,
2013-07-10 03:06:00,72.0,69.9,29.94,South,180,4.0,5.0,93,0.00,,,0.01,VWS V14.01,2013-07-10 07:06:00,
2013-07-10 03:07:00,72.0,69.9,29.94,South,180,3.0,5.0,93,0.00,,,0.01,VWS V14.01,2013-07-10 07:07:00,
2013-07-10 03:11:00,71.8,69.7,29.94,SSE,167,0.0,6.0,93,0.00,,,0.01,VWS V14.01,2013-07-10 07:11:00,
2013-07-10 03:12:00,71.8,69.7,29.94,SSE,166,0.0,6.0,93,0.00,,,0.01,VWS V14.01,2013-07-10 07:12:00,
2013-07-10 03:13:00,71.8,69.7,29.94,SSE,167,0.0,6.0,93,0.00,,,0.01,VWS V14.01,2013-07-10 07:13:00,
2013-07-10 03:14:00,71.8,69.7,29.94,SSE,167,0.0,6.0,93,0.00,,,0.01,VWS V14.01,2013-07-10 07:14:00,
2013-07-10 03:15:00,71.8,69.7,29.94,SSE,167,0.0,6.0,93,0.00,,,0.01,VWS V14.01,2013-07-10 07:15:00,
2013-07-10 03:17:00,71.6,69.5,29.94,SSE,167,0.0,6.0,93,0.00,,,0.01,VWS V14.01,2013-07-10 07:17:00,
2013-07-10 03:18:00,71.6,69.5,29.94,SSE,167,0.0,6.0,93,0.00,,,0.01,VWS V14.01,2013-07-10 07:18:00,
2013-07-10 03:20:00,71.6,69.5,29.93,SSE,167,0.0,6.0,93,0.00,,,0.01,VWS V14.01,2013-07-10 07:20:00,
2013-07-10 03:22:00,71.5,69.4,29.93,South,170,8.0,8.0,93,0.00,,,0.01,VWS V14.01,2013-07-10 07:22:00,
2013-07-10 03:25:00,71.5,69.4,29.93,South,173,8.0,9.0,93,0.00,,,0.01,VWS V14.01,2013-07-10 07:25:00,
2013-07-10 03:30:00,71.1,69.0,29.93,South,180,2.0,9.0,93,0.00,,,0.01,VWS V14.01,2013-07-10 07:30:00,
2013-07-10 04:00:00,70.9,69.1,29.93,South,180,0.0,7.0,94,0.00,,,0.01,VWS V14.01,2013-07-10 08:00:00,
2013-07-10 04:30:00,71.3,69.5,29.93,South,180,0.0,5.0,94,0.00,,,0.01,VWS V14.01,2013-07-10 08:30:00,
2013-07-10 05:00:00,70.9,69.4,29.92,South,180,0.0,0.0,95,0.00,,,0.01,VWS V14.01,2013-07-10 09:00:00,
2013-07-10 05:30:00,70.8,69.3,29.93,South,180,0.0,4.0,95,0.00,,,0.01,VWS V14.01,2013-07-10 09:30:00,
2013-07-10 06:00:00,70.1,68.6,29.93,South,180,0.0,5.0,95,0.00,,,0.01,VWS V14.01,2013-07-10 10:00:00,
2013-07-10 06:30:00,70.6,69.1,29.93,South,180,0.0,6.0,95,0.00,,,0.01,VWS V14.01,2013-07-10 10:30:00,
2013-07-10 07:09:00,71.6,70.1,29.93,South,181,0.0,0.0,95,0.00,,,0.01,VWS V14.01,2013-07-10 11:09:00,
2013-07-10 07:10:00,71.6,70.1,29.93,South,181,0.0,0.0,95,0.00,,,0.01,VWS V14.01,2013-07-10 11:10:00,
2013-07-10 07:12:00,71.6,70.1,29.93,South,181,0.0,0.0,95,0.00,,,0.01,VWS V14.01,2013-07-10 11:12:00,
2013-07-10 07:13:00,71.6,70.1,29.93,South,181,0.0,0.0,95,0.00,,,0.01,VWS V14.01,2013-07-10 11:13:00,
2013-07-10 07:14:00,71.6,70.1,29.93,South,181,0.0,0.0,95,0.00,,,0.01,VWS V14.01,2013-07-10 11:14:00,
2013-07-10 07:15:00,71.6,70.1,29.93,South,181,0.0,0.0,95,0.00,,,0.01,VWS V14.01,2013-07-10 11:15:00,
2013-07-10 07:17:00,71.6,70.1,29.93,South,181,0.0,0.0,95,0.00,,,0.01,VWS V14.01,2013-07-10 11:17:00,
2013-07-10 07:19:00,71.8,70.3,29.93,South,181,4.0,5.0,95,0.00,,,0.01,VWS V14.01,2013-07-10 11:19:00,
2013-07-10 07:20:00,71.8,70.3,29.93,South,181,4.0,5.0,95,0.00,,,0.01,VWS V14.01,2013-07-10 11:20:00,
2013-07-10 07:22:00,71.6,70.1,29.93,SSW,197,9.0,9.0,95,0.00,,,0.01,VWS V14.01,2013-07-10 11:22:00,
2013-07-10 07:24:00,71.6,70.1,29.93,South,190,4.0,9.0,95,0.00,,,0.01,VWS V14.01,2013-07-10 11:24:00,
2013-07-10 07:25:00,71.6,70.1,29.93,SSW,203,4.0,9.0,95,0.00,,,0.01,VWS V14.01,2013-07-10 11:25:00,
2013-07-10 07:27:00,71.5,70.0,29.93,SSW,203,4.0,9.0,95,0.00,,,0.01,VWS V14.01,2013-07-10 11:27:00,
2013-07-10 07:31:00,71.6,70.1,29.93,SSW,199,3.0,9.0,95,0.00,,,0.01,VWS V14.01,2013-07-10 11:31:00,
2013-07-10 07:32:00,71.6,70.1,29.93,SSW,196,0.0,9.0,95,0.00,,,0.01,VWS V14.01,2013-07-10 11:32:00,
2013-07-10 07:34:00,71.8,70.3,29.93,SSW,195,0.0,9.0,95,0.00,,,0.01,VWS V14.01,2013-07-10 11:34:00,
2013-07-10 07:38:00,72.0,70.5,29.93,South,187,0.0,0.0,95,0.00,,,0.01,VWS V14.01,2013-07-10 11:38:00,
2013-07-10 07:39:00,72.1,70.6,29.93,South,179,0.0,0.0,95,0.00,,,0.01,VWS V14.01,2013-07-10 11:39:00,
2013-07-10 07:40:00,72.1,70.6,29.93,South,179,0.0,4.0,95,0.00,,,0.01,VWS V14.01,2013-07-10 11:40:00,
2013-07-10 07:42:00,72.0,70.2,29.93,South,178,0.0,6.0,94,0.00,,,0.01,VWS V14.01,2013-07-10 11:42:00,
2013-07-10 07:44:00,72.0,70.2,29.93,SSE,167,0.0,6.0,94,0.00,,,0.01,VWS V14.01,2013-07-10 11:44:00,
2013-07-10 07:46:00,72.0,70.2,29.93,SSE,167,0.0,6.0,94,0.00,,,0.01,VWS V14.01,2013-07-10 11:46:00,
2013-07-10 07:48:00,72.0,70.2,29.93,SSE,166,0.0,6.0,94,0.00,,,0.01,VWS V14.01,2013-07-10 11:48:00,
2013-07-10 07:49:00,72.1,70.3,29.93,SSE,165,4.0,6.0,94,0.00,,,0.01,VWS V14.01,2013-07-10 11:49:00,
2013-07-10 07:50:00,72.1,70.3,29.93,SSE,167,0.0,6.0,94,0.00,,,0.01,VWS V14.01,2013-07-10 11:50:00,
2013-07-10 07:53:00,72.3,70.5,29.93,South,169,4.0,6.0,94,0.00,,,0.01,VWS V14.01,2013-07-10 11:53:00,
2013-07-10 07:54:00,72.3,70.5,29.93,South,169,0.0,6.0,94,0.00,,,0.01,VWS V14.01,2013-07-10 11:54:00,
2013-07-10 07:55:00,72.5,70.7,29.93,South,169,0.0,6.0,94,0.00,,,0.01,VWS V14.01,2013-07-10 11:55:00,
2013-07-10 07:58:00,72.7,70.6,29.93,South,169,0.0,6.0,93,0.00,,,0.01,VWS V14.01,2013-07-10 11:58:00,
2013-07-10 08:00:00,73.0,70.9,29.93,South,169,0.0,6.0,93,0.00,,,0.01,VWS V14.01,2013-07-10 12:00:00,
2013-07-10 08:01:00,73.2,71.1,29.93,South,169,0.0,6.0,93,0.00,,,0.01,VWS V14.01,2013-07-10 12:01:00,
2013-07-10 08:02:00,73.2,71.1,29.93,South,169,0.0,6.0,93,0.00,,,0.01,VWS V14.01,2013-07-10 12:02:00,
2013-07-10 08:03:00,73.3,71.2,29.93,South,169,0.0,6.0,93,0.00,,,0.01,VWS V14.01,2013-07-10 12:03:00,
2013-07-10 08:05:00,73.5,71.0,29.93,South,169,0.0,0.0,92,0.00,,,0.01,VWS V14.01,2013-07-10 12:05:00,
2013-07-10 08:06:00,73.7,71.2,29.93,South,169,0.0,0.0,92,0.00,,,0.01,VWS V14.01,2013-07-10 12:06:00,
2013-07-10 08:08:00,73.9,71.4,29.93,South,169,0.0,0.0,92,0.00,,,0.01,VWS V14.01,2013-07-10 12:08:00,
2013-07-10 08:10:00,74.0,71.5,29.93,South,169,0.0,4.0,92,0.00,,,0.01,VWS V14.01,2013-07-10 12:10:00,
2013-07-10 08:13:00,74.6,71.5,29.93,SSE,160,5.0,5.0,90,0.00,,,0.01,VWS V14.01,2013-07-10 12:13:00,
2013-07-10 08:14:00,74.7,71.6,29.93,SSE,158,2.0,6.0,90,0.00,,,0.01,VWS V14.01,2013-07-10 12:14:00,
2013-07-10 08:15:00,74.7,70.9,29.93,SSE,157,0.0,6.0,88,0.00,,,0.01,VWS V14.01,2013-07-10 12:15:00,
2013-07-10 08:17:00,74.6,70.5,29.93,SSE,157,0.0,6.0,87,0.00,,,0.01,VWS V14.01,2013-07-10 12:17:00,
2013-07-10 08:18:00,74.6,70.5,29.93,SSE,157,0.0,6.0,87,0.00,,,0.01,VWS V14.01,2013-07-10 12:18:00,
2013-07-10 08:20:00,74.7,70.6,29.92,SSE,157,0.0,6.0,87,0.00,,,0.01,VWS V14.01,2013-07-10 12:20:00,
2013-07-10 08:21:00,74.9,70.4,29.92,SSE,157,0.0,6.0,86,0.00,,,0.01,VWS V14.01,2013-07-10 12:21:00,
2013-07-10 08:23:00,74.9,69.7,29.92,SSE,153,0.0,7.0,84,0.00,,,0.01,VWS V14.01,2013-07-10 12:23:00,
2013-07-10 08:24:00,75.1,70.6,29.92,SSE,157,2.0,7.0,86,0.00,,,0.01,VWS V14.01,2013-07-10 12:24:00,
2013-07-10 08:25:00,75.3,70.8,29.92,SSE,157,0.0,7.0,86,0.00,,,0.01,VWS V14.01,2013-07-10 12:25:00,
2013-07-10 08:27:00,75.4,70.6,29.92,SSE,157,2.0,7.0,85,0.00,,,0.01,VWS V14.01,2013-07-10 12:27:00,
2013-07-10 08:30:00,75.6,70.4,29.92,SSE,157,0.0,7.0,84,0.00,,,0.01,VWS V14.01,2013-07-10 12:30:00,
2013-07-10 08:31:00,75.6,70.1,29.92,SSE,157,2.0,7.0,83,0.00,,,0.01,VWS V14.01,2013-07-10 12:31:00,
2013-07-10 08:32:00,75.8,70.3,29.92,SSE,157,0.0,7.0,83,0.00,,,0.01,VWS V14.01,2013-07-10 12:32:00,
2013-07-10 08:33:00,75.8,70.6,29.92,SSE,157,0.0,7.0,84,0.00,,,0.01,VWS V14.01,2013-07-10 12:33:00,
2013-07-10 08:34:00,76.0,70.1,29.92,SSE,157,0.0,7.0,82,0.00,,,0.01,VWS V14.01,2013-07-10 12:34:00,
2013-07-10 08:35:00,76.0,70.5,29.92,SSE,157,0.0,0.0,83,0.00,,,0.01,VWS V14.01,2013-07-10 12:35:00,
2013-07-10 08:38:00,76.3,70.8,29.92,SSE,157,0.0,0.0,83,0.00,,,0.01,VWS V14.01,2013-07-10 12:38:00,
2013-07-10 08:39:00,76.7,71.2,29.92,SSE,157,0.0,0.0,83,0.00,,,0.01,VWS V14.01,2013-07-10 12:39:00,
2013-07-10 08:40:00,77.0,71.4,29.92,SSE,155,0.0,0.0,83,0.00,,,0.01,VWS V14.01,2013-07-10 12:40:00,
2013-07-10 08:42:00,77.6,72.4,29.92,SSE,155,0.0,0.0,84,0.00,,,0.01,VWS V14.01,2013-07-10 12:42:00,
2013-07-10 08:43:00,77.7,71.8,29.92,SSE,155,2.0,2.0,82,0.00,,,0.01,VWS V14.01,2013-07-10 12:43:00,
2013-07-10 08:44:00,77.7,71.4,29.92,SSE,156,0.0,5.0,81,0.00,,,0.01,VWS V14.01,2013-07-10 12:44:00,
2013-07-10 08:49:00,78.6,72.7,29.92,SSE,155,0.0,5.0,82,0.00,,,0.01,VWS V14.01,2013-07-10 12:49:00,
2013-07-10 08:50:00,78.8,72.8,29.91,SSE,156,0.0,5.0,82,0.00,,,0.01,VWS V14.01,2013-07-10 12:50:00,
2013-07-10 08:51:00,79.0,72.7,29.91,SSE,156,0.0,5.0,81,0.00,,,0.01,VWS V14.01,2013-07-10 12:51:00,
2013-07-10 08:53:00,79.2,72.5,29.91,SSE,155,2.0,5.0,80,0.00,,,0.01,VWS V14.01,2013-07-10 12:53:00,
2013-07-10 08:55:00,79.2,72.5,29.91,SSE,155,0.0,6.0,80,0.00,,,0.01,VWS V14.01,2013-07-10 12:55:00,
2013-07-10 08:57:00,79.4,71.9,29.91,SSE,155,0.0,6.0,78,0.00,,,0.01,VWS V14.01,2013-07-10 12:57:00,
2013-07-10 08:59:00,79.8,72.7,29.91,SSE,155,2.0,6.0,79,0.00,,,0.01,VWS V14.01,2013-07-10 12:59:00,
2013-07-10 09:00:00,79.9,73.2,29.91,SSE,155,0.0,6.0,80,0.00,,,0.01,VWS V14.01,2013-07-10 13:00:00,
2013-07-10 09:01:00,79.8,71.6,29.91,SSE,155,0.0,6.0,76,0.00,,,0.01,VWS V14.01,2013-07-10 13:01:00,
2013-07-10 09:03:00,79.6,71.8,29.91,SSE,152,0.0,6.0,77,0.00,,,0.01,VWS V14.01,2013-07-10 13:03:00,
2013-07-10 09:05:00,79.6,71.8,29.91,SSE,152,2.0,6.0,77,0.00,,,0.01,VWS V14.01,2013-07-10 13:05:00,
2013-07-10 09:07:00,79.8,72.3,29.91,SSE,151,4.0,6.0,78,0.00,,,0.01,VWS V14.01,2013-07-10 13:07:00,
2013-07-10 09:08:00,79.6,71.8,29.91,SSE,148,0.0,6.0,77,0.00,,,0.01,VWS V14.01,2013-07-10 13:08:00,
2013-07-10 09:10:00,79.4,71.6,29.91,SSE,148,0.0,6.0,77,0.00,,,0.01,VWS V14.01,2013-07-10 13:10:00,
2013-07-10 09:11:00,79.4,72.3,29.91,SSE,148,0.0,6.0,79,0.00,,,0.01,VWS V14.01,2013-07-10 13:11:00,
2013-07-10 09:14:00,79.8,72.7,29.91,SSE,165,1.0,7.0,79,0.00,,,0.01,VWS V14.01,2013-07-10 13:14:00,
2013-07-10 09:16:00,80.1,72.6,29.91,SSE,157,2.0,7.0,78,0.00,,,0.01,VWS V14.01,2013-07-10 13:16:00,
2013-07-10 09:18:00,80.1,72.6,29.91,SSE,148,0.0,7.0,78,0.00,,,0.01,VWS V14.01,2013-07-10 13:18:00,
2013-07-10 09:19:00,80.3,72.8,29.91,SSE,148,0.0,7.0,78,0.00,,,0.01,VWS V14.01,2013-07-10 13:19:00,
2013-07-10 09:24:00,80.5,72.2,29.91,SSE,153,0.0,7.0,76,0.00,,,0.01,VWS V14.01,2013-07-10 13:24:00,
2013-07-10 09:25:00,80.5,72.2,29.91,SSE,153,2.0,7.0,76,0.00,,,0.01,VWS V14.01,2013-07-10 13:25:00,
2013-07-10 09:27:00,80.5,72.2,29.91,SSE,153,0.0,7.0,76,0.00,,,0.01,VWS V14.01,2013-07-10 13:27:00,
2013-07-10 09:30:00,81.1,72.8,29.91,SSE,153,4.0,7.0,76,0.00,,,0.01,VWS V14.01,2013-07-10 13:30:00,
2013-07-10 09:31:00,81.1,72.8,29.91,SSE,153,0.0,7.0,76,0.00,,,0.01,VWS V14.01,2013-07-10 13:31:00,
2013-07-10 09:35:00,81.1,73.2,29.91,SSE,153,0.0,7.0,77,0.00,,,0.01,VWS V14.01,2013-07-10 13:35:00,
2013-07-10 09:37:00,81.2,72.9,29.91,SSE,153,0.0,0.0,76,0.00,,,0.01,VWS V14.01,2013-07-10 13:37:00,
2013-07-10 09:40:00,81.4,73.5,29.91,SSE,151,0.0,4.0,77,0.00,,,0.01,VWS V14.01,2013-07-10 13:40:00,
2013-07-10 09:41:00,81.6,73.7,29.91,WSW,252,2.0,8.0,77,0.00,,,0.01,VWS V14.01,2013-07-10 13:41:00,
2013-07-10 09:43:00,81.8,73.5,29.91,SSW,193,0.0,8.0,76,0.00,,,0.01,VWS V14.01,2013-07-10 13:43:00,
2013-07-10 09:44:00,81.8,73.5,29.91,WSW,257,0.0,8.0,76,0.00,,,0.01,VWS V14.01,2013-07-10 13:44:00,
2013-07-10 09:45:00,82.0,74.5,29.91,WSW,256,4.0,8.0,78,0.00,,,0.01,VWS V14.01,2013-07-10 13:45:00,
2013-07-10 09:50:00,82.8,76.0,29.91,SW,231,6.0,11.0,80,0.00,,,0.01,VWS V14.01,2013-07-10 13:50:00,
2013-07-10 09:51:00,82.8,76.0,29.91,WSW,239,8.0,11.0,80,0.00,,,0.01,VWS V14.01,2013-07-10 13:51:00,
2013-07-10 09:52:00,83.0,76.2,29.91,SW,234,9.0,11.0,80,0.00,,,0.01,VWS V14.01,2013-07-10 13:52:00,
2013-07-10 09:56:00,83.6,76.4,29.91,SW,235,7.0,11.0,79,0.00,,,0.01,VWS V14.01,2013-07-10 13:56:00,
2013-07-10 09:57:00,83.8,76.6,29.91,SW,234,9.0,11.0,79,0.00,,,0.01,VWS V14.01,2013-07-10 13:57:00,
2013-07-10 10:00:00,83.8,76.2,29.91,SW,232,12.0,12.0,78,0.00,,,0.01,VWS V14.01,2013-07-10 14:00:00,
2013-07-10 10:02:00,84.0,76.4,29.91,WSW,257,6.0,13.0,78,0.00,,,0.01,VWS V14.01,2013-07-10 14:02:00,
2013-07-10 10:05:00,84.0,76.4,29.90,SW,234,4.0,13.0,78,0.00,,,0.01,VWS V14.01,2013-07-10 14:05:00,
2013-07-10 10:08:00,84.0,76.0,29.90,SW,232,4.0,10.0,77,0.00,,,0.01,VWS V14.01,2013-07-10 14:08:00,
2013-07-10 10:09:00,84.0,76.4,29.90,SW,223,8.0,10.0,78,0.00,,,0.01,VWS V14.01,2013-07-10 14:09:00,
2013-07-10 10:11:00,84.1,76.1,29.90,SW,221,6.0,11.0,77,0.00,,,0.01,VWS V14.01,2013-07-10 14:11:00,
2013-07-10 10:13:00,84.3,76.3,29.90,SW,217,7.0,11.0,77,0.00,,,0.01,VWS V14.01,2013-07-10 14:13:00,
2013-07-10 10:14:00,84.3,76.3,29.90,SW,218,3.0,11.0,77,0.00,,,0.01,VWS V14.01,2013-07-10 14:14:00,
2013-07-10 10:16:00,84.3,75.9,29.90,SW,236,10.0,11.0,76,0.00,,,0.01,VWS V14.01,2013-07-10 14:16:00,
2013-07-10 10:18:00,84.1,75.7,29.90,WSW,252,9.0,11.0,76,0.00,,,0.01,VWS V14.01,2013-07-10 14:18:00,
2013-07-10 10:20:00,84.1,75.7,29.90,SW,229,2.0,11.0,76,0.00,,,0.01,VWS V14.01,2013-07-10 14:20:00,
2013-07-10 10:21:00,84.1,75.7,29.90,SW,219,6.0,11.0,76,0.00,,,0.01,VWS V14.01,2013-07-10 14:21:00,
2013-07-10 10:23:00,84.0,76.0,29.90,West,261,7.0,11.0,77,0.00,,,0.01,VWS V14.01,2013-07-10 14:23:00,
2013-07-10 10:24:00,84.0,76.0,29.90,WSW,255,9.0,11.0,77,0.00,,,0.01,VWS V14.01,2013-07-10 14:24:00,
2013-07-10 10:25:00,84.0,76.0,29.90,WSW,248,0.0,11.0,77,0.00,,,0.01,VWS V14.01,2013-07-10 14:25:00,
2013-07-10 10:27:00,84.0,76.0,29.90,SW,221,4.0,11.0,77,0.00,,,0.01,VWS V14.01,2013-07-10 14:27:00,
2013-07-10 10:28:00,84.0,76.0,29.90,SW,235,3.0,11.0,77,0.00,,,0.01,VWS V14.01,2013-07-10 14:28:00,
2013-07-10 10:30:00,83.8,75.8,29.90,SW,233,14.0,14.0,77,0.00,,,0.01,VWS V14.01,2013-07-10 14:30:00,
2013-07-10 10:32:00,83.8,75.8,29.90,SW,229,8.0,14.0,77,0.00,,,0.01,VWS V14.01,2013-07-10 14:32:00,
2013-07-10 10:34:00,83.8,75.8,29.90,West,277,9.0,14.0,77,0.00,,,0.01,VWS V14.01,2013-07-10 14:34:00,
2013-07-10 10:35:00,83.8,75.8,29.90,WNW,285,6.0,14.0,77,0.00,,,0.01,VWS V14.01,2013-07-10 14:35:00,
2013-07-10 10:37:00,83.6,76.0,29.90,WSW,251,8.0,11.0,78,0.00,,,0.01,VWS V14.01,2013-07-10 14:37:00,
2013-07-10 10:39:00,83.8,76.6,29.90,WSW,248,4.0,11.0,79,0.00,,,0.01,VWS V14.01,2013-07-10 14:39:00,
2013-07-10 10:40:00,84.0,76.4,29.90,WSW,252,6.0,11.0,78,0.00,,,0.01,VWS V14.01,2013-07-10 14:40:00,
2013-07-10 10:41:00,84.0,76.4,29.90,WSW,258,12.0,13.0,78,0.00,,,0.01,VWS V14.01,2013-07-10 14:41:00,
2013-07-10 10:46:00,84.0,75.6,29.90,WNW,287,3.0,14.0,76,0.00,,,0.01,VWS V14.01,2013-07-10 14:46:00,
2013-07-10 10:47:00,84.0,75.6,29.90,West,274,7.0,14.0,76,0.00,,,0.01,VWS V14.01,2013-07-10 14:47:00,
2013-07-10 10:48:00,84.0,76.0,29.90,WSW,252,6.0,14.0,77,0.00,,,0.01,VWS V14.01,2013-07-10 14:48:00,
2013-07-10 10:49:00,84.0,76.0,29.90,WSW,257,4.0,14.0,77,0.00,,,0.01,VWS V14.01,2013-07-10 14:49:00,
2013-07-10 10:50:00,83.8,75.4,29.90,SW,229,1.0,14.0,76,0.00,,,0.01,VWS V14.01,2013-07-10 14:50:00,
2013-07-10 10:51:00,83.8,75.4,29.90,SW,225,4.0,14.0,76,0.00,,,0.01,VWS V14.01,2013-07-10 14:51:00,
2013-07-10 10:54:00,84.0,76.0,29.90,WSW,245,4.0,14.0,77,0.00,,,0.01,VWS V14.01,2013-07-10 14:54:00,
2013-07-10 10:56:00,84.0,75.6,29.90,West,271,3.0,14.0,76,0.00,,,0.01,VWS V14.01,2013-07-10 14:56:00,
2013-07-10 10:57:00,84.0,75.6,29.90,West,270,9.0,14.0,76,0.00,,,0.01,VWS V14.01,2013-07-10 14:57:00,
2013-07-10 10:58:00,84.0,76.0,29.90,West,269,6.0,14.0,77,0.00,,,0.01,VWS V14.01,2013-07-10 14:58:00,
2013-07-10 11:03:00,84.1,75.7,29.90,WSW,244,6.0,14.0,76,0.00,,,0.01,VWS V14.01,2013-07-10 15:03:00,
2013-07-10 11:04:00,84.1,75.7,29.90,West,267,7.0,14.0,76,0.00,,,0.01,VWS V14.01,2013-07-10 15:04:00,
2013-07-10 11:05:00,84.1,75.7,29.90,SW,221,12.0,12.0,76,0.00,,,0.01,VWS V14.01,2013-07-10 15:05:00,
2013-07-10 11:06:00,84.1,75.7,29.90,WNW,282,3.0,16.0,76,0.00,,,0.01,VWS V14.01,2013-07-10 15:06:00,
2013-07-10 11:10:00,84.1,75.7,29.90,WSW,247,0.0,16.0,76,0.00,,,0.01,VWS V14.01,2013-07-10 15:10:00,
2013-07-10 11:12:00,84.3,76.3,29.90,WSW,250,3.0,16.0,77,0.00,,,0.01,VWS V14.01,2013-07-10 15:12:00,
2013-07-10 11:14:00,84.7,76.3,29.90,WSW,249,3.0,16.0,76,0.00,,,0.01,VWS V14.01,2013-07-10 15:14:00,
2013-07-10 11:16:00,84.9,76.1,29.90,WSW,248,13.0,16.0,75,0.00,,,0.01,VWS V14.01,2013-07-10 15:16:00,
2013-07-10 11:17:00,84.9,76.1,29.90,WSW,257,10.0,16.0,75,0.00,,,0.01,VWS V14.01,2013-07-10 15:17:00,
2013-07-10 11:18:00,84.9,75.7,29.90,WSW,252,6.0,16.0,74,0.00,,,0.01,VWS V14.01,2013-07-10 15:18:00,
2013-07-10 11:19:00,84.9,75.7,29.90,WSW,248,6.0,16.0,74,0.00,,,0.01,VWS V14.01,2013-07-10 15:19:00,
2013-07-10 11:22:00,84.9,76.5,29.90,SW,236,7.0,16.0,76,0.00,,,0.01,VWS V14.01,2013-07-10 15:22:00,
2013-07-10 11:25:00,85.1,76.3,29.90,WSW,240,6.0,16.0,75,0.00,,,0.01,VWS V14.01,2013-07-10 15:25:00,
2013-07-10 11:26:00,85.1,76.7,29.90,WSW,240,7.0,16.0,76,0.00,,,0.01,VWS V14.01,2013-07-10 15:26:00,
2013-07-10 11:29:00,85.5,77.1,29.90,SW,222,6.0,16.0,76,0.00,,,0.01,VWS V14.01,2013-07-10 15:29:00,
2013-07-10 11:31:00,85.7,76.1,29.90,West,263,5.0,16.0,73,0.00,,,0.01,VWS V14.01,2013-07-10 15:31:00,
2013-07-10 11:32:00,85.7,76.9,29.90,SW,235,3.0,16.0,75,0.00,,,0.01,VWS V14.01,2013-07-10 15:32:00,
2013-07-10 11:35:00,85.9,76.2,29.89,WSW,252,8.0,16.0,73,0.00,,,0.01,VWS V14.01,2013-07-10 15:35:00,
2013-07-10 11:38:00,86.5,76.8,29.89,West,274,6.0,10.0,73,0.00,,,0.01,VWS V14.01,2013-07-10 15:38:00,
2013-07-10 11:40:00,86.5,76.4,29.89,SW,233,9.0,10.0,72,0.00,,,0.01,VWS V14.01,2013-07-10 15:40:00,
2013-07-10 11:41:00,86.5,76.8,29.89,WSW,254,0.0,10.0,73,0.00,,,0.01,VWS V14.01,2013-07-10 15:41:00,
2013-07-10 11:43:00,86.5,76.0,29.89,SW,236,10.0,14.0,71,0.00,,,0.01,VWS V14.01,2013-07-10 15:43:00,
2013-07-10 11:45:00,86.3,75.8,29.89,SSW,212,8.0,14.0,71,0.00,,,0.01,VWS V14.01,2013-07-10 15:45:00,
2013-07-10 11:46:00,86.3,76.2,29.89,SW,217,10.0,14.0,72,0.00,,,0.01,VWS V14.01,2013-07-10 15:46:00,
2013-07-10 11:47:00,86.5,76.4,29.89,West,261,12.0,14.0,72,0.00,,,0.01,VWS V14.01,2013-07-10 15:47:00,
2013-07-10 11:51:00,86.7,76.2,29.88,SW,221,13.0,14.0,71,0.00,,,0.01,VWS V14.01,2013-07-10 15:51:00,
2013-07-10 11:52:00,86.7,76.2,29.88,SW,217,8.0,14.0,71,0.00,,,0.01,VWS V14.01,2013-07-10 15:52:00,
2013-07-10 11:53:00,86.7,76.6,29.88,SW,225,6.0,14.0,72,0.00,,,0.01,VWS V14.01,2013-07-10 15:53:00,
2013-07-10 11:54:00,86.7,76.6,29.88,SW,217,6.0,14.0,72,0.00,,,0.01,VWS V14.01,2013-07-10 15:54:00,
2013-07-10 11:56:00,87.2,77.1,29.88,SSW,194,7.0,14.0,72,0.00,,,0.01,VWS V14.01,2013-07-10 15:56:00,
2013-07-10 11:59:00,87.0,76.5,29.88,SE,124,0.0,14.0,71,0.00,,,0.01,VWS V14.01,2013-07-10 15:59:00,
2013-07-10 12:00:00,86.1,73.0,29.88,SE,124,0.0,14.0,65,0.00,,,0.01,VWS V14.01,2013-07-10 16:00:00,
2013-07-10 12:01:00,85.5,72.8,29.88,SE,125,6.0,14.0,66,0.00,,,0.01,VWS V14.01,2013-07-10 16:01:00,
2013-07-10 12:03:00,84.7,72.5,29.88,SE,143,7.0,14.0,67,0.00,,,0.01,VWS V14.01,2013-07-10 16:03:00,
2013-07-10 12:05:00,84.1,72.4,29.88,SE,143,2.0,14.0,68,0.00,,,0.01,VWS V14.01,2013-07-10 16:05:00,
2013-07-10 12:06:00,83.8,73.0,29.88,SE,144,4.0,9.0,70,0.00,,,0.01,VWS V14.01,2013-07-10 16:06:00,
2013-07-10 12:07:00,83.4,72.6,29.88,SE,144,0.0,9.0,70,0.00,,,0.01,VWS V14.01,2013-07-10 16:07:00,
2013-07-10 12:10:00,82.6,72.2,29.88,SSE,155,8.0,9.0,71,0.00,,,0.01,VWS V14.01,2013-07-10 16:10:00,
2013-07-10 12:11:00,82.4,71.6,29.88,SSE,153,9.0,11.0,70,0.00,,,0.01,VWS V14.01,2013-07-10 16:11:00,
2013-07-10 12:13:00,81.6,71.3,29.88,SSE,151,0.0,11.0,71,0.00,,,0.01,VWS V14.01,2013-07-10 16:13:00,
2013-07-10 12:14:00,81.4,71.1,29.88,SSE,148,4.0,11.0,71,0.00,,,0.01,VWS V14.01,2013-07-10 16:14:00,
2013-07-10 12:15:00,81.4,71.5,29.88,SW,215,9.0,11.0,72,0.00,,,0.01,VWS V14.01,2013-07-10 16:15:00,
2013-07-10 12:16:00,81.2,72.5,29.88,SW,215,6.0,11.0,75,0.00,,,0.01,VWS V14.01,2013-07-10 16:16:00,
2013-07-10 12:20:00,81.6,74.1,29.88,SW,222,0.0,11.0,78,0.00,,,0.01,VWS V14.01,2013-07-10 16:20:00,
2013-07-10 12:21:00,81.4,73.1,29.88,SE,143,2.0,11.0,76,0.00,,,0.01,VWS V14.01,2013-07-10 16:21:00,
2013-07-10 12:22:00,81.2,72.1,29.88,SSE,157,4.0,11.0,74,0.00,,,0.01,VWS V14.01,2013-07-10 16:22:00,
2013-07-10 12:23:00,81.1,72.0,29.88,SSE,163,5.0,11.0,74,0.00,,,0.01,VWS V14.01,2013-07-10 16:23:00,
2013-07-10 12:24:00,80.9,71.8,29.88,SSE,148,5.0,11.0,74,0.00,,,0.01,VWS V14.01,2013-07-10 16:24:00,
2013-07-10 12:28:00,80.5,73.0,29.88,ESE,122,4.0,11.0,78,0.00,,,0.01,VWS V14.01,2013-07-10 16:28:00,
2013-07-10 12:29:00,80.7,73.6,29.88,SE,135,7.0,11.0,79,0.00,,,0.01,VWS V14.01,2013-07-10 16:29:00,
2013-07-10 12:30:00,81.1,74.3,29.88,SE,136,0.0,11.0,80,0.00,,,0.01,VWS V14.01,2013-07-10 16:30:00,
2013-07-10 12:33:00,81.1,73.2,29.88,SSW,206,7.0,11.0,77,0.00,,,0.01,VWS V14.01,2013-07-10 16:33:00,
2013-07-10 12:35:00,82.0,74.8,29.88,SW,225,0.0,11.0,79,0.00,,,0.01,VWS V14.01,2013-07-10 16:35:00,
2013-07-10 12:36:00,82.8,75.6,29.88,SSE,163,0.0,7.0,79,0.00,,,0.01,VWS V14.01,2013-07-10 16:36:00,
2013-07-10 12:38:00,83.6,75.6,29.88,South,174,0.0,12.0,77,0.00,,,0.01,VWS V14.01,2013-07-10 16:38:00,
2013-07-10 12:39:00,84.0,74.0,29.88,WNW,288,0.0,12.0,72,0.00,,,0.01,VWS V14.01,2013-07-10 16:39:00,
2013-07-10 12:40:00,84.1,74.1,29.88,SW,220,5.0,12.0,72,0.00,,,0.01,VWS V14.01,2013-07-10 16:40:00,
2013-07-10 12:43:00,84.3,72.6,29.88,SSE,161,0.0,12.0,68,0.00,,,0.01,VWS V14.01,2013-07-10 16:43:00,
2013-07-10 12:45:00,84.1,72.8,29.88,WSW,255,10.0,12.0,69,0.00,,,0.01,VWS V14.01,2013-07-10 16:45:00,
2013-07-10 12:46:00,84.3,73.5,29.88,WSW,239,6.0,12.0,70,0.00,,,0.01,VWS V14.01,2013-07-10 16:46:00,
2013-07-10 12:48:00,84.3,73.5,29.88,SW,229,0.0,12.0,70,0.00,,,0.01,VWS V14.01,2013-07-10 16:48:00,
2013-07-10 12:50:00,84.1,73.3,29.87,SE,145,4.0,12.0,70,0.00,,,0.01,VWS V14.01,2013-07-10 16:50:00,
2013-07-10 12:52:00,84.0,73.2,29.87,SE,144,0.0,12.0,70,0.00,,,0.01,VWS V14.01,2013-07-10 16:52:00,
2013-07-10 12:53:00,83.8,73.0,29.87,SSE,147,0.0,12.0,70,0.00,,,0.01,VWS V14.01,2013-07-10 16:53:00,
2013-07-10 12:54:00,84.0,74.0,29.87,West,267,7.0,12.0,72,0.00,,,0.01,VWS V14.01,2013-07-10 16:54:00,
2013-07-10 12:56:00,84.3,74.3,29.87,West,260,6.0,12.0,72,0.00,,,0.01,VWS V14.01,2013-07-10 16:56:00,
2013-07-10 12:57:00,84.7,74.7,29.87,SW,219,6.0,12.0,72,0.00,,,0.01,VWS V14.01,2013-07-10 16:57:00,
2013-07-10 13:01:00,85.5,75.4,29.87,WSW,243,6.0,13.0,72,0.00,,,0.01,VWS V14.01,2013-07-10 17:01:00,
2013-07-10 13:02:00,85.9,75.4,29.87,SW,226,10.0,13.0,71,0.00,,,0.01,VWS V14.01,2013-07-10 17:02:00,
2013-07-10 13:05:00,86.7,74.9,29.87,West,265,9.0,14.0,68,0.00,,,0.01,VWS V14.01,2013-07-10 17:05:00,
2013-07-10 13:06:00,87.2,74.9,29.87,WSW,245,5.0,9.0,67,0.00,,,0.01,VWS V14.01,2013-07-10 17:06:00,
2013-07-10 13:10:00,88.6,75.8,29.87,SW,228,8.0,13.0,66,0.00,,,0.01,VWS V14.01,2013-07-10 17:10:00,
2013-07-10 13:11:00,88.6,74.9,29.87,South,184,5.0,13.0,64,0.00,,,0.01,VWS V14.01,2013-07-10 17:11:00,
2013-07-10 13:13:00,88.0,72.9,29.87,SSE,156,9.0,13.0,61,0.00,,,0.01,VWS V14.01,2013-07-10 17:13:00,
2013-07-10 13:16:00,86.1,72.5,29.87,SSE,148,7.0,13.0,64,0.00,,,0.01,VWS V14.01,2013-07-10 17:16:00,
2013-07-10 13:17:00,85.5,71.9,29.87,SSE,158,8.0,13.0,64,0.00,,,0.01,VWS V14.01,2013-07-10 17:17:00,
2013-07-10 13:18:00,84.7,72.1,29.87,SE,133,8.0,13.0,66,0.00,,,0.01,VWS V14.01,2013-07-10 17:18:00,
2013-07-10 13:22:00,83.2,72.4,29.86,SSE,155,4.0,13.0,70,0.00,,,0.01,VWS V14.01,2013-07-10 17:22:00,
2013-07-10 13:24:00,82.6,71.8,29.86,SSE,150,8.0,13.0,70,0.00,,,0.01,VWS V14.01,2013-07-10 17:24:00,
2013-07-10 13:25:00,82.2,71.0,29.86,SSE,156,8.0,13.0,69,0.00,,,0.01,VWS V14.01,2013-07-10 17:25:00,
2013-07-10 13:29:00,81.2,71.7,29.86,SSE,159,5.0,13.0,73,0.00,,,0.01,VWS V14.01,2013-07-10 17:29:00,
2013-07-10 13:30:00,81.1,71.6,29.86,SSE,149,5.0,13.0,73,0.00,,,0.01,VWS V14.01,2013-07-10 17:30:00,
2013-07-10 13:31:00,81.1,72.0,29.86,SSE,156,5.0,13.0,74,0.00,,,0.01,VWS V14.01,2013-07-10 17:31:00,
2013-07-10 13:35:00,81.1,71.2,29.85,SE,145,7.0,13.0,72,0.00,,,0.01,VWS V14.01,2013-07-10 17:35:00,
2013-07-10 13:38:00,80.9,71.4,29.85,SSE,148,4.0,8.0,73,0.00,,,0.01,VWS V14.01,2013-07-10 17:38:00,
2013-07-10 13:39:00,80.7,70.8,29.85,SSE,161,4.0,8.0,72,0.00,,,0.01,VWS V14.01,2013-07-10 17:39:00,
2013-07-10 13:43:00,80.5,70.7,29.85,SSE,153,0.0,10.0,72,0.00,,,0.01,VWS V14.01,2013-07-10 17:43:00,
2013-07-10 13:44:00,80.5,71.1,29.85,SSE,155,0.0,10.0,73,0.00,,,0.01,VWS V14.01,2013-07-10 17:44:00,
2013-07-10 13:45:00,80.5,71.5,29.85,South,182,0.0,10.0,74,0.00,,,0.01,VWS V14.01,2013-07-10 17:45:00,
2013-07-10 13:48:00,80.9,72.2,29.85,South,180,0.0,10.0,75,0.00,,,0.01,VWS V14.01,2013-07-10 17:48:00,
2013-07-10 13:49:00,80.9,71.8,29.84,South,180,0.0,10.0,74,0.00,,,0.01,VWS V14.01,2013-07-10 17:49:00,
2013-07-10 13:50:00,81.1,72.0,29.84,South,180,0.0,10.0,74,0.00,,,0.01,VWS V14.01,2013-07-10 17:50:00,
2013-07-10 13:53:00,81.8,73.1,29.84,SW,229,12.0,15.0,75,0.00,,,0.01,VWS V14.01,2013-07-10 17:53:00,
2013-07-10 13:54:00,82.2,73.1,29.84,SW,233,12.0,15.0,74,0.00,,,0.01,VWS V14.01,2013-07-10 17:54:00,
2013-07-10 13:55:00,82.6,73.5,29.84,WSW,238,5.0,15.0,74,0.00,,,0.01,VWS V14.01,2013-07-10 17:55:00,
2013-07-10 13:58:00,83.4,73.4,29.84,WSW,251,11.0,15.0,72,0.00,,,0.01,VWS V14.01,2013-07-10 17:58:00,
2013-07-10 14:00:00,84.0,74.0,29.84,West,277,4.0,15.0,72,0.00,,,0.01,VWS V14.01,2013-07-10 18:00:00,
2013-07-10 14:01:00,84.1,73.7,29.84,West,275,3.0,15.0,71,0.00,,,0.01,VWS V14.01,2013-07-10 18:01:00,
2013-07-10 14:02:00,84.3,73.5,29.84,SW,227,6.0,15.0,70,0.00,,,0.01,VWS V14.01,2013-07-10 18:02:00,
2013-07-10 14:07:00,85.1,74.2,29.85,West,263,11.0,12.0,70,0.00,,,0.01,VWS V14.01,2013-07-10 18:07:00,
2013-07-10 14:08:00,85.3,74.4,29.85,WSW,257,8.0,12.0,70,0.00,,,0.01,VWS V14.01,2013-07-10 18:08:00,
2013-07-10 14:09:00,85.5,74.2,29.85,West,261,12.0,14.0,69,0.00,,,0.01,VWS V14.01,2013-07-10 18:09:00,
2013-07-10 14:13:00,86.1,74.8,29.85,WNW,292,1.0,14.0,69,0.00,,,0.01,VWS V14.01,2013-07-10 18:13:00,
2013-07-10 14:15:00,86.5,75.1,29.85,WSW,248,5.0,14.0,69,0.00,,,0.01,VWS V14.01,2013-07-10 18:15:00,
2013-07-10 14:18:00,87.0,75.2,29.85,WSW,248,8.0,14.0,68,0.00,,,0.01,VWS V14.01,2013-07-10 18:18:00,
2013-07-10 14:20:00,87.4,75.6,29.84,WSW,247,14.0,14.0,68,0.00,,,0.01,VWS V14.01,2013-07-10 18:20:00,
2013-07-10 14:21:00,87.4,75.1,29.84,WNW,288,7.0,14.0,67,0.00,,,0.01,VWS V14.01,2013-07-10 18:21:00,
2013-07-10 14:23:00,87.6,74.8,29.84,WSW,258,3.0,14.0,66,0.00,,,0.01,VWS V14.01,2013-07-10 18:23:00,
2013-07-10 14:28:00,87.6,73.5,29.84,West,271,14.0,20.0,63,0.00,,,0.01,VWS V14.01,2013-07-10 18:28:00,
2013-07-10 14:29:00,87.6,73.5,29.84,SSW,212,9.0,20.0,63,0.00,,,0.01,VWS V14.01,2013-07-10 18:29:00,
2013-07-10 14:31:00,87.6,73.5,29.84,SW,223,11.0,20.0,63,0.00,,,0.01,VWS V14.01,2013-07-10 18:31:00,
2013-07-10 14:34:00,87.4,73.3,29.84,WNW,294,5.0,20.0,63,0.00,,,0.01,VWS V14.01,2013-07-10 18:34:00,
2013-07-10 14:35:00,87.2,73.6,29.85,WSW,239,9.0,20.0,64,0.00,,,0.01,VWS V14.01,2013-07-10 18:35:00,
2013-07-10 14:36:00,87.2,73.6,29.85,West,262,4.0,13.0,64,0.00,,,0.01,VWS V14.01,2013-07-10 18:36:00,
2013-07-10 14:38:00,87.0,74.7,29.85,SW,236,8.0,13.0,67,0.00,,,0.01,VWS V14.01,2013-07-10 18:38:00,
2013-07-10 14:39:00,86.7,74.9,29.85,WSW,252,8.0,15.0,68,0.00,,,0.01,VWS V14.01,2013-07-10 18:39:00,
2013-07-10 14:41:00,86.5,75.1,29.85,West,278,6.0,15.0,69,0.00,,,0.01,VWS V14.01,2013-07-10 18:41:00,
2013-07-10 14:43:00,86.3,75.8,29.85,West,269,8.0,15.0,71,0.00,,,0.01,VWS V14.01,2013-07-10 18:43:00,
2013-07-10 14:44:00,86.1,75.6,29.85,West,272,8.0,15.0,71,0.00,,,0.01,VWS V14.01,2013-07-10 18:44:00,
2013-07-10 14:46:00,85.9,75.8,29.85,SW,227,11.0,15.0,72,0.00,,,0.01,VWS V14.01,2013-07-10 18:46:00,
2013-07-10 14:47:00,85.7,75.6,29.85,WSW,237,15.0,20.0,72,0.00,,,0.01,VWS V14.01,2013-07-10 18:47:00,
2013-07-10 14:48:00,85.5,75.4,29.85,SSW,212,6.0,20.0,72,0.00,,,0.01,VWS V14.01,2013-07-10 18:48:00,
2013-07-10 14:49:00,85.3,75.2,29.84,SW,231,9.0,20.0,72,0.00,,,0.01,VWS V14.01,2013-07-10 18:49:00,
2013-07-10 14:52:00,84.7,74.7,29.84,WSW,238,10.0,20.0,72,0.00,,,0.01,VWS V14.01,2013-07-10 18:52:00,
2013-07-10 14:54:00,84.3,74.3,29.84,SW,233,3.0,20.0,72,0.00,,,0.01,VWS V14.01,2013-07-10 18:54:00,
2013-07-10 14:55:00,84.3,74.3,29.84,SW,230,7.0,20.0,72,0.00,,,0.01,VWS V14.01,2013-07-10 18:55:00,
2013-07-10 14:57:00,84.3,74.7,29.84,WSW,250,4.0,20.0,73,0.00,,,0.01,VWS V14.01,2013-07-10 18:57:00,
2013-07-10 14:58:00,84.3,74.7,29.84,SSW,207,3.0,20.0,73,0.00,,,0.01,VWS V14.01,2013-07-10 18:58:00,
2013-07-10 15:02:00,84.3,74.3,29.84,SW,221,6.0,20.0,72,0.00,,,0.01,VWS V14.01,2013-07-10 19:02:00,
2013-07-10 15:03:00,84.3,74.7,29.84,SW,221,12.0,20.0,73,0.00,,,0.01,VWS V14.01,2013-07-10 19:03:00,
2013-07-10 15:05:00,84.5,74.5,29.83,SW,234,12.0,12.0,72,0.00,,,0.01,VWS V14.01,2013-07-10 19:05:00,
2013-07-10 15:06:00,84.5,74.5,29.83,SW,229,10.0,12.0,72,0.00,,,0.01,VWS V14.01,2013-07-10 19:06:00,
2013-07-10 15:11:00,84.7,74.7,29.83,SW,229,3.0,12.0,72,0.00,,,0.01,VWS V14.01,2013-07-10 19:11:00,
2013-07-10 15:12:00,84.9,75.3,29.83,SW,229,0.0,12.0,73,0.00,,,0.01,VWS V14.01,2013-07-10 19:12:00,
2013-07-10 15:17:00,85.7,75.6,29.83,SW,230,7.0,14.0,72,0.00,,,0.01,VWS V14.01,2013-07-10 19:17:00,
2013-07-10 15:18:00,85.7,74.8,29.83,SW,226,7.0,14.0,70,0.00,,,0.01,VWS V14.01,2013-07-10 19:18:00,
2013-07-10 15:20:00,85.9,74.6,29.83,WSW,237,7.0,14.0,69,0.00,,,0.01,VWS V14.01,2013-07-10 19:20:00,
2013-07-10 15:23:00,86.3,74.9,29.83,SW,225,12.0,16.0,69,0.00,,,0.01,VWS V14.01,2013-07-10 19:23:00,
2013-07-10 15:25:00,86.5,75.6,29.83,SW,227,0.0,16.0,70,0.00,,,0.01,VWS V14.01,2013-07-10 19:25:00,
2013-07-10 15:27:00,87.0,76.0,29.83,SW,221,14.0,16.0,70,0.00,,,0.01,VWS V14.01,2013-07-10 19:27:00,
2013-07-10 15:28:00,87.0,75.2,29.83,SW,232,11.0,16.0,68,0.00,,,0.01,VWS V14.01,2013-07-10 19:28:00,
2013-07-10 15:31:00,87.0,75.2,29.83,SSW,213,8.0,18.0,68,0.00,,,0.01,VWS V14.01,2013-07-10 19:31:00,
2013-07-10 15:33:00,87.0,75.2,29.83,SW,232,8.0,18.0,68,0.00,,,0.01,VWS V14.01,2013-07-10 19:33:00,
2013-07-10 15:37:00,86.7,74.4,29.83,West,275,2.0,14.0,67,0.00,,,0.01,VWS V14.01,2013-07-10 19:37:00,
2013-07-10 15:38:00,86.7,74.4,29.83,West,259,11.0,14.0,67,0.00,,,0.01,VWS V14.01,2013-07-10 19:38:00,
2013-07-10 15:39:00,86.7,74.4,29.83,SW,232,9.0,15.0,67,0.00,,,0.01,VWS V14.01,2013-07-10 19:39:00,
2013-07-10 15:40:00,86.7,74.9,29.83,SW,228,9.0,15.0,68,0.00,,,0.01,VWS V14.01,2013-07-10 19:40:00,
2013-07-10 15:42:00,86.7,74.4,29.83,WSW,237,8.0,16.0,67,0.00,,,0.01,VWS V14.01,2013-07-10 19:42:00,
2013-07-10 15:43:00,87.0,74.7,29.83,WSW,247,4.0,16.0,67,0.00,,,0.01,VWS V14.01,2013-07-10 19:43:00,
2013-07-10 15:44:00,87.0,74.3,29.83,WSW,252,9.0,16.0,66,0.00,,,0.01,VWS V14.01,2013-07-10 19:44:00,
2013-07-10 15:45:00,86.7,74.0,29.83,NW,313,11.0,16.0,66,0.00,,,0.01,VWS V14.01,2013-07-10 19:45:00,
2013-07-10 15:48:00,87.0,74.3,29.83,SSW,212,6.0,16.0,66,0.00,,,0.01,VWS V14.01,2013-07-10 19:48:00,
2013-07-10 15:49:00,87.0,74.3,29.83,WSW,248,3.0,16.0,66,0.00,,,0.01,VWS V14.01,2013-07-10 19:49:00,
2013-07-10 15:50:00,87.0,73.8,29.83,WSW,246,7.0,16.0,65,0.00,,,0.01,VWS V14.01,2013-07-10 19:50:00,
2013-07-10 15:55:00,87.2,73.6,29.83,West,265,10.0,16.0,64,0.00,,,0.01,VWS V14.01,2013-07-10 19:55:00,
2013-07-10 15:56:00,87.4,73.7,29.83,WSW,242,11.0,16.0,64,0.00,,,0.01,VWS V14.01,2013-07-10 19:56:00,
2013-07-10 16:02:00,87.8,73.6,29.83,SW,236,9.0,18.0,63,0.00,,,0.01,VWS V14.01,2013-07-10 20:02:00,
2013-07-10 16:04:00,87.8,73.2,29.83,SW,225,8.0,18.0,62,0.00,,,0.01,VWS V14.01,2013-07-10 20:04:00,
2013-07-10 16:05:00,87.6,73.0,29.82,SW,221,12.0,18.0,62,0.00,,,0.01,VWS V14.01,2013-07-10 20:05:00,
2013-07-10 16:07:00,87.4,72.3,29.82,WSW,247,6.0,18.0,61,0.00,,,0.01,VWS V14.01,2013-07-10 20:07:00,
2013-07-10 16:10:00,87.2,73.1,29.82,WSW,256,15.0,18.0,63,0.00,,,0.01,VWS V14.01,2013-07-10 20:10:00,
2013-07-10 16:11:00,87.2,73.1,29.82,WSW,241,11.0,18.0,63,0.00,,,0.01,VWS V14.01,2013-07-10 20:11:00,
2013-07-10 16:13:00,87.2,73.6,29.82,WSW,239,6.0,18.0,64,0.00,,,0.01,VWS V14.01,2013-07-10 20:13:00,
2013-07-10 16:15:00,87.4,73.7,29.82,WSW,258,10.0,18.0,64,0.00,,,0.01,VWS V14.01,2013-07-10 20:15:00,
2013-07-10 16:17:00,87.4,73.3,29.82,SW,221,6.0,18.0,63,0.00,,,0.01,VWS V14.01,2013-07-10 20:17:00,
2013-07-10 16:18:00,87.4,73.7,29.82,WSW,246,11.0,18.0,64,0.00,,,0.01,VWS V14.01,2013-07-10 20:18:00,
2013-07-10 16:20:00,87.6,73.5,29.82,SW,231,12.0,18.0,63,0.00,,,0.01,VWS V14.01,2013-07-10 20:20:00,
2013-07-10 16:24:00,88.0,73.4,29.82,SW,220,7.0,18.0,62,0.00,,,0.01,VWS V14.01,2013-07-10 20:24:00,
2013-07-10 16:25:00,88.0,73.4,29.82,SW,220,3.0,18.0,62,0.00,,,0.01,VWS V14.01,2013-07-10 20:25:00,
2013-07-10 16:26:00,88.2,73.6,29.82,SW,229,7.0,18.0,62,0.00,,,0.01,VWS V14.01,2013-07-10 20:26:00,
2013-07-10 16:28:00,88.2,73.6,29.82,SSW,209,10.0,18.0,62,0.00,,,0.01,VWS V14.01,2013-07-10 20:28:00,
2013-07-10 16:30:00,88.4,73.7,29.82,West,261,10.0,18.0,62,0.00,,,0.01,VWS V14.01,2013-07-10 20:30:00,
2013-07-10 16:31:00,88.4,73.2,29.82,WSW,244,8.0,18.0,61,0.00,,,0.01,VWS V14.01,2013-07-10 20:31:00,
2013-07-10 16:33:00,88.6,73.4,29.82,WSW,257,11.0,18.0,61,0.00,,,0.01,VWS V14.01,2013-07-10 20:33:00,
2013-07-10 16:35:00,88.6,73.4,29.81,SSW,199,12.0,13.0,61,0.00,,,0.01,VWS V14.01,2013-07-10 20:35:00,
2013-07-10 16:36:00,88.6,73.9,29.81,SW,228,11.0,14.0,62,0.00,,,0.01,VWS V14.01,2013-07-10 20:36:00,
2013-07-10 16:38:00,88.6,72.9,29.81,SW,226,13.0,14.0,60,0.00,,,0.01,VWS V14.01,2013-07-10 20:38:00,
2013-07-10 16:39:00,88.6,72.9,29.81,SW,234,9.0,14.0,60,0.00,,,0.01,VWS V14.01,2013-07-10 20:39:00,
2013-07-10 16:40:00,88.4,72.8,29.81,SW,221,9.0,17.0,60,0.00,,,0.01,VWS V14.01,2013-07-10 20:40:00,
2013-07-10 16:41:00,88.4,72.8,29.81,West,267,7.0,17.0,60,0.00,,,0.01,VWS V14.01,2013-07-10 20:41:00,
2013-07-10 16:44:00,88.6,72.9,29.81,SW,232,10.0,19.0,60,0.00,,,0.01,VWS V14.01,2013-07-10 20:44:00,
2013-07-10 16:46:00,88.6,72.4,29.81,WSW,257,14.0,19.0,59,0.00,,,0.01,VWS V14.01,2013-07-10 20:46:00,
2013-07-10 16:47:00,88.4,72.3,29.81,SSW,200,10.0,19.0,59,0.00,,,0.01,VWS V14.01,2013-07-10 20:47:00,
2013-07-10 16:52:00,88.6,71.9,29.80,SW,223,9.0,19.0,58,0.00,,,0.01,VWS V14.01,2013-07-10 20:52:00,
2013-07-10 16:53:00,88.6,71.9,29.80,SW,225,7.0,19.0,58,0.00,,,0.01,VWS V14.01,2013-07-10 20:53:00,
2013-07-10 16:54:00,88.6,71.9,29.80,SSW,213,2.0,19.0,58,0.00,,,0.01,VWS V14.01,2013-07-10 20:54:00,
2013-07-10 16:57:00,88.8,71.6,29.80,South,180,3.0,19.0,57,0.00,,,0.01,VWS V14.01,2013-07-10 20:57:00,
2013-07-10 16:58:00,88.8,72.1,29.80,SSE,159,8.0,19.0,58,0.00,,,0.01,VWS V14.01,2013-07-10 20:58:00,
2013-07-10 16:59:00,88.6,70.9,29.80,SSE,147,15.0,19.0,56,0.00,,,0.01,VWS V14.01,2013-07-10 20:59:00,
2013-07-10 17:00:00,88.4,71.8,29.80,SSE,155,11.0,19.0,58,0.00,,,0.01,VWS V14.01,2013-07-10 21:00:00,
2013-07-10 17:02:00,87.6,71.5,29.80,SSE,149,8.0,19.0,59,0.00,,,0.01,VWS V14.01,2013-07-10 21:02:00,
2013-07-10 17:04:00,86.7,70.7,29.80,SSW,194,5.0,19.0,59,0.00,,,0.01,VWS V14.01,2013-07-10 21:04:00,
2013-07-10 17:05:00,86.5,71.5,29.80,South,187,2.0,19.0,61,0.00,,,0.01,VWS V14.01,2013-07-10 21:05:00,
2013-07-10 17:06:00,86.1,71.1,29.80,SSE,167,6.0,7.0,61,0.00,,,0.01,VWS V14.01,2013-07-10 21:06:00,
2013-07-10 17:10:00,85.3,71.3,29.80,SSE,163,2.0,8.0,63,0.00,,,0.01,VWS V14.01,2013-07-10 21:10:00,
2013-07-10 17:11:00,85.1,70.6,29.80,South,181,6.0,8.0,62,0.00,,,0.01,VWS V14.01,2013-07-10 21:11:00,
2013-07-10 17:12:00,84.9,70.4,29.80,SSE,148,6.0,8.0,62,0.00,,,0.01,VWS V14.01,2013-07-10 21:12:00,
2013-07-10 17:14:00,84.3,70.8,29.80,South,174,5.0,9.0,64,0.00,,,0.01,VWS V14.01,2013-07-10 21:14:00,
2013-07-10 17:15:00,84.1,70.6,29.80,SSE,153,6.0,10.0,64,0.00,,,0.01,VWS V14.01,2013-07-10 21:15:00,
2013-07-10 17:18:00,83.6,71.5,29.80,SSE,168,4.0,12.0,67,0.00,,,0.01,VWS V14.01,2013-07-10 21:18:00,
2013-07-10 17:19:00,83.4,71.3,29.80,South,188,9.0,13.0,67,0.00,,,0.01,VWS V14.01,2013-07-10 21:19:00,
2013-07-10 17:20:00,83.4,71.7,29.80,South,187,8.0,13.0,68,0.00,,,0.01,VWS V14.01,2013-07-10 21:20:00,
2013-07-10 17:21:00,83.2,71.6,29.80,South,183,7.0,13.0,68,0.00,,,0.01,VWS V14.01,2013-07-10 21:21:00,
2013-07-10 17:23:00,83.2,71.6,29.80,South,170,4.0,13.0,68,0.00,,,0.01,VWS V14.01,2013-07-10 21:23:00,
2013-07-10 17:26:00,83.4,71.3,29.80,SSW,194,11.0,20.0,67,0.00,,,0.01,VWS V14.01,2013-07-10 21:26:00,
2013-07-10 17:28:00,83.8,70.8,29.80,West,273,7.0,20.0,65,0.00,,,0.01,VWS V14.01,2013-07-10 21:28:00,
2013-07-10 17:29:00,84.0,71.0,29.80,SSE,161,4.0,20.0,65,0.00,,,0.01,VWS V14.01,2013-07-10 21:29:00,
2013-07-10 17:30:00,84.1,70.6,29.80,SSE,155,5.0,20.0,64,0.00,,,0.01,VWS V14.01,2013-07-10 21:30:00,
2013-07-10 17:33:00,84.7,72.5,29.80,SSW,200,9.0,20.0,67,0.00,,,0.01,VWS V14.01,2013-07-10 21:33:00,
2013-07-10 17:35:00,85.1,72.9,29.79,SW,216,14.0,20.0,67,0.00,,,0.01,VWS V14.01,2013-07-10 21:35:00,
2013-07-10 17:38:00,84.9,71.8,29.79,SSW,195,7.0,15.0,65,0.00,,,0.01,VWS V14.01,2013-07-10 21:38:00,
2013-07-10 17:39:00,84.7,72.1,29.79,South,184,9.0,15.0,66,0.00,,,0.01,VWS V14.01,2013-07-10 21:39:00,
2013-07-10 17:40:00,84.5,71.4,29.79,SSW,198,12.0,16.0,65,0.00,,,0.01,VWS V14.01,2013-07-10 21:40:00,
2013-07-10 17:42:00,84.0,71.4,29.79,South,182,6.0,16.0,66,0.00,,,0.01,VWS V14.01,2013-07-10 21:42:00,
2013-07-10 17:43:00,83.8,71.2,29.79,SSE,161,4.0,16.0,66,0.00,,,0.01,VWS V14.01,2013-07-10 21:43:00,
2013-07-10 17:45:00,83.4,71.7,29.79,SSW,202,9.0,16.0,68,0.00,,,0.01,VWS V14.01,2013-07-10 21:45:00,
2013-07-10 17:48:00,83.0,71.8,29.79,SSW,213,7.0,16.0,69,0.00,,,0.01,VWS V14.01,2013-07-10 21:48:00,
2013-07-10 17:49:00,82.8,72.0,29.80,SSW,207,4.0,16.0,70,0.00,,,0.01,VWS V14.01,2013-07-10 21:49:00,
2013-07-10 17:50:00,82.8,72.4,29.80,SSW,195,10.0,16.0,71,0.00,,,0.01,VWS V14.01,2013-07-10 21:50:00,
2013-07-10 17:52:00,82.8,72.9,29.80,SSE,168,7.0,16.0,72,0.00,,,0.01,VWS V14.01,2013-07-10 21:52:00,
2013-07-10 17:53:00,83.0,73.1,29.80,SSE,163,8.0,16.0,72,0.00,,,0.01,VWS V14.01,2013-07-10 21:53:00,
2013-07-10 17:54:00,83.0,73.1,29.80,SSE,150,10.0,16.0,72,0.00,,,0.01,VWS V14.01,2013-07-10 21:54:00,
2013-07-10 17:58:00,83.0,73.1,29.80,South,184,3.0,16.0,72,0.00,,,0.01,VWS V14.01,2013-07-10 21:58:00,
2013-07-10 18:00:00,83.2,73.2,29.80,SSW,209,7.0,16.0,72,0.00,,,0.01,VWS V14.01,2013-07-10 22:00:00,
2013-07-10 18:01:00,83.2,73.2,29.80,South,182,5.0,16.0,72,0.00,,,0.01,VWS V14.01,2013-07-10 22:01:00,
2013-07-10 18:03:00,83.4,73.4,29.80,SSW,208,12.0,16.0,72,0.00,,,0.01,VWS V14.01,2013-07-10 22:03:00,
2013-07-10 18:04:00,83.4,73.4,29.79,South,190,8.0,16.0,72,0.00,,,0.01,VWS V14.01,2013-07-10 22:04:00,
2013-07-10 18:06:00,83.6,73.6,29.79,SSW,194,4.0,10.0,72,0.00,,,0.01,VWS V14.01,2013-07-10 22:06:00,
2013-07-10 18:08:00,83.8,73.8,29.79,South,191,9.0,10.0,72,0.00,,,0.01,VWS V14.01,2013-07-10 22:08:00,
2013-07-10 18:09:00,84.0,74.0,29.79,South,190,10.0,10.0,72,0.00,,,0.01,VWS V14.01,2013-07-10 22:09:00,
2013-07-10 18:13:00,84.1,73.7,29.79,SSE,159,1.0,12.0,71,0.00,,,0.01,VWS V14.01,2013-07-10 22:13:00,
2013-07-10 18:14:00,84.3,73.9,29.79,South,171,5.0,12.0,71,0.00,,,0.01,VWS V14.01,2013-07-10 22:14:00,
2013-07-10 18:15:00,84.3,73.5,29.79,SE,141,4.0,12.0,70,0.00,,,0.01,VWS V14.01,2013-07-10 22:15:00,
2013-07-10 18:20:00,84.0,72.3,29.79,SSE,159,4.0,12.0,68,0.00,,,0.01,VWS V14.01,2013-07-10 22:20:00,
2013-07-10 18:21:00,84.0,71.9,29.79,SSW,195,8.0,12.0,67,0.00,,,0.01,VWS V14.01,2013-07-10 22:21:00,
2013-07-10 18:22:00,83.8,71.7,29.79,SSW,205,9.0,12.0,67,0.00,,,0.01,VWS V14.01,2013-07-10 22:22:00,
2013-07-10 18:25:00,83.0,70.9,29.79,SSW,197,7.0,15.0,67,0.00,,,0.01,VWS V14.01,2013-07-10 22:25:00,
2013-07-10 18:27:00,82.6,71.0,29.79,SSW,196,3.0,15.0,68,0.00,,,0.01,VWS V14.01,2013-07-10 22:27:00,
2013-07-10 18:28:00,82.4,70.8,29.79,SSW,200,8.0,15.0,68,0.00,,,0.01,VWS V14.01,2013-07-10 22:28:00,
2013-07-10 18:29:00,82.4,70.8,29.79,SSW,194,7.0,15.0,68,0.00,,,0.01,VWS V14.01,2013-07-10 22:29:00,
2013-07-10 18:31:00,82.0,70.8,29.79,SSE,168,8.0,15.0,69,0.00,,,0.01,VWS V14.01,2013-07-10 22:31:00,
2013-07-10 18:35:00,81.4,70.7,29.80,SSE,162,0.0,15.0,70,0.00,,,0.01,VWS V14.01,2013-07-10 22:35:00,
2013-07-10 18:36:00,81.2,70.9,29.80,SSW,198,9.0,11.0,71,0.00,,,0.01,VWS V14.01,2013-07-10 22:36:00,
2013-07-10 18:38:00,81.2,71.3,29.80,SSE,159,1.0,11.0,72,0.00,,,0.01,VWS V14.01,2013-07-10 22:38:00,
2013-07-10 18:40:00,81.2,71.3,29.80,SSW,195,3.0,11.0,72,0.00,,,0.01,VWS V14.01,2013-07-10 22:40:00,
2013-07-10 18:41:00,81.2,71.7,29.80,South,170,5.0,11.0,73,0.00,,,0.01,VWS V14.01,2013-07-10 22:41:00,
2013-07-10 18:43:00,81.2,71.3,29.80,SSW,202,5.0,11.0,72,0.00,,,0.01,VWS V14.01,2013-07-10 22:43:00,
2013-07-10 18:46:00,81.4,71.9,29.80,SSE,167,6.0,11.0,73,0.00,,,0.01,VWS V14.01,2013-07-10 22:46:00,
2013-07-10 18:47:00,81.4,71.9,29.80,South,188,1.0,11.0,73,0.00,,,0.01,VWS V14.01,2013-07-10 22:47:00,
2013-07-10 18:48:00,81.6,72.1,29.80,SSE,168,0.0,11.0,73,0.00,,,0.01,VWS V14.01,2013-07-10 22:48:00,
2013-07-10 18:50:00,81.6,71.7,29.81,South,177,6.0,11.0,72,0.00,,,0.01,VWS V14.01,2013-07-10 22:50:00,
2013-07-10 18:52:00,81.8,72.3,29.81,SSW,193,1.0,11.0,73,0.00,,,0.01,VWS V14.01,2013-07-10 22:52:00,
2013-07-10 18:54:00,82.0,71.7,29.81,SSE,159,4.0,11.0,71,0.00,,,0.01,VWS V14.01,2013-07-10 22:54:00,
2013-07-10 18:55:00,82.0,71.7,29.81,SSE,154,0.0,11.0,71,0.00,,,0.01,VWS V14.01,2013-07-10 22:55:00,
2013-07-10 18:58:00,82.0,71.7,29.81,SSE,157,0.0,11.0,71,0.00,,,0.01,VWS V14.01,2013-07-10 22:58:00,
2013-07-10 18:59:00,82.0,71.7,29.81,SSE,157,0.0,11.0,71,0.00,,,0.01,VWS V14.01,2013-07-10 22:59:00,
2013-07-10 19:01:00,82.0,70.8,29.81,SSE,156,4.0,11.0,69,0.00,,,0.01,VWS V14.01,2013-07-10 23:01:00,
2013-07-10 19:02:00,81.8,70.6,29.81,SSE,160,1.0,11.0,69,0.00,,,0.01,VWS V14.01,2013-07-10 23:02:00,
2013-07-10 19:03:00,81.8,70.6,29.81,SSE,159,0.0,11.0,69,0.00,,,0.01,VWS V14.01,2013-07-10 23:03:00,
2013-07-10 19:05:00,81.8,71.1,29.81,South,188,0.0,0.0,70,0.00,,,0.01,VWS V14.01,2013-07-10 23:05:00,
2013-07-10 19:06:00,81.8,71.1,29.81,South,188,4.0,8.0,70,0.00,,,0.01,VWS V14.01,2013-07-10 23:06:00,
2013-07-10 19:08:00,81.8,71.5,29.81,SSW,200,8.0,11.0,71,0.00,,,0.01,VWS V14.01,2013-07-10 23:08:00,
2013-07-10 19:09:00,81.8,71.5,29.81,SSW,200,0.0,11.0,71,0.00,,,0.01,VWS V14.01,2013-07-10 23:09:00,
2013-07-10 19:13:00,81.4,71.1,29.81,South,190,0.0,11.0,71,0.00,,,0.01,VWS V14.01,2013-07-10 23:13:00,
2013-07-10 19:14:00,81.4,71.1,29.81,South,185,0.0,11.0,71,0.00,,,0.01,VWS V14.01,2013-07-10 23:14:00,
2013-07-10 19:15:00,81.2,70.9,29.81,South,185,0.0,11.0,71,0.00,,,0.01,VWS V14.01,2013-07-10 23:15:00,
2013-07-10 19:17:00,81.1,71.2,29.81,South,175,0.0,11.0,72,0.00,,,0.01,VWS V14.01,2013-07-10 23:17:00,
2013-07-10 19:19:00,81.1,71.2,29.82,South,178,0.0,11.0,72,0.00,,,0.01,VWS V14.01,2013-07-10 23:19:00,
2013-07-10 19:20:00,80.9,71.0,29.82,South,178,0.0,11.0,72,0.00,,,0.01,VWS V14.01,2013-07-10 23:20:00,
2013-07-10 19:21:00,80.9,71.0,29.82,South,178,0.0,11.0,72,0.00,,,0.01,VWS V14.01,2013-07-10 23:21:00,
2013-07-10 19:24:00,80.7,71.2,29.82,South,178,0.0,11.0,73,0.00,,,0.01,VWS V14.01,2013-07-10 23:24:00,
2013-07-10 19:26:00,80.7,71.2,29.82,South,178,0.0,11.0,73,0.00,,,0.01,VWS V14.01,2013-07-10 23:26:00,
2013-07-10 19:29:00,80.7,71.2,29.82,South,173,0.0,11.0,73,0.00,,,0.01,VWS V14.01,2013-07-10 23:29:00,
2013-07-10 19:30:00,80.5,71.1,29.82,South,169,0.0,11.0,73,0.00,,,0.01,VWS V14.01,2013-07-10 23:30:00,
2013-07-10 19:34:00,79.9,70.1,29.81,SSE,166,0.0,11.0,72,0.00,,,0.01,VWS V14.01,2013-07-10 23:34:00,
2013-07-10 19:35:00,79.9,70.1,29.81,SSE,163,0.0,11.0,72,0.00,,,0.01,VWS V14.01,2013-07-10 23:35:00,
2013-07-10 19:37:00,79.6,69.8,29.81,SSE,149,2.0,7.0,72,0.00,,,0.01,VWS V14.01,2013-07-10 23:37:00,
2013-07-10 19:40:00,78.8,69.0,29.81,SE,146,4.0,7.0,72,0.00,,,0.01,VWS V14.01,2013-07-10 23:40:00,
2013-07-10 19:41:00,78.6,68.8,29.81,SE,146,0.0,7.0,72,0.00,,,0.01,VWS V14.01,2013-07-10 23:41:00,
2013-07-10 19:45:00,78.1,68.8,29.81,SE,146,0.0,7.0,73,0.00,,,0.01,VWS V14.01,2013-07-10 23:45:00,
2013-07-10 19:46:00,77.9,68.9,29.81,SE,146,0.0,7.0,74,0.00,,,0.01,VWS V14.01,2013-07-10 23:46:00,
2013-07-10 19:47:00,77.7,68.8,29.81,SE,146,0.0,7.0,74,0.00,,,0.01,VWS V14.01,2013-07-10 23:47:00,
2013-07-10 19:48:00,77.6,69.1,29.81,SE,146,0.0,7.0,75,0.00,,,0.01,VWS V14.01,2013-07-10 23:48:00,
2013-07-10 19:52:00,77.0,68.9,29.82,SE,146,4.0,7.0,76,0.00,,,0.01,VWS V14.01,2013-07-10 23:52:00,
2013-07-10 19:53:00,77.0,68.9,29.82,SE,146,0.0,7.0,76,0.00,,,0.01,VWS V14.01,2013-07-10 23:53:00,
2013-07-10 19:54:00,76.8,69.1,29.82,SE,146,0.0,7.0,77,0.00,,,0.01,VWS V14.01,2013-07-10 23:54:00,
2013-07-10 19:55:00,76.8,69.1,29.82,SE,146,0.0,7.0,77,0.00,,,0.01,VWS V14.01,2013-07-10 23:55:00,
2013-07-10 19:58:00,76.5,69.1,29.82,SE,146,0.0,7.0,78,0.00,,,0.01,VWS V14.01,2013-07-10 23:58:00,
2013-07-10 19:59:00,76.5,69.1,29.82,SE,146,0.0,7.0,78,0.00,,,0.01,VWS V14.01,2013-07-10 23:59:00,
2013-07-10 20:03:00,76.3,69.3,29.82,SE,146,2.0,7.0,79,0.00,,,0.01,VWS V14.01,2013-07-11 00:03:00,
2013-07-10 20:05:00,76.3,69.3,29.81,SSE,147,5.0,6.0,79,0.00,,,0.01,VWS V14.01,2013-07-11 00:05:00,
2013-07-10 20:06:00,76.1,69.5,29.81,SSE,148,0.0,6.0,80,0.00,,,0.01,VWS V14.01,2013-07-11 00:06:00,
2013-07-10 20:07:00,76.1,69.5,29.81,SSE,148,0.0,6.0,80,0.00,,,0.01,VWS V14.01,2013-07-11 00:07:00,
2013-07-10 20:10:00,76.1,69.5,29.81,SSE,148,0.0,6.0,80,0.00,,,0.01,VWS V14.01,2013-07-11 00:10:00,
2013-07-10 20:11:00,76.0,69.4,29.81,South,171,5.0,6.0,80,0.00,,,0.01,VWS V14.01,2013-07-11 00:11:00,
2013-07-10 20:12:00,76.0,69.4,29.81,South,171,0.0,6.0,80,0.00,,,0.01,VWS V14.01,2013-07-11 00:12:00,
2013-07-10 20:13:00,76.0,69.8,29.81,South,170,0.0,6.0,81,0.00,,,0.01,VWS V14.01,2013-07-11 00:13:00,
2013-07-10 20:16:00,75.8,69.6,29.81,South,170,0.0,6.0,81,0.00,,,0.01,VWS V14.01,2013-07-11 00:16:00,
2013-07-10 20:17:00,75.8,69.6,29.81,South,169,0.0,6.0,81,0.00,,,0.01,VWS V14.01,2013-07-11 00:17:00,
2013-07-10 20:18:00,75.8,69.6,29.81,South,169,0.0,6.0,81,0.00,,,0.01,VWS V14.01,2013-07-11 00:18:00,
2013-07-10 20:23:00,75.6,69.7,29.81,South,169,0.0,6.0,82,0.00,,,0.01,VWS V14.01,2013-07-11 00:23:00,
2013-07-10 20:24:00,75.6,69.7,29.81,South,169,0.0,6.0,82,0.00,,,0.01,VWS V14.01,2013-07-11 00:24:00,
2013-07-10 20:26:00,75.4,69.5,29.81,South,169,5.0,6.0,82,0.00,,,0.01,VWS V14.01,2013-07-11 00:26:00,
2013-07-10 20:29:00,75.4,69.9,29.81,South,169,0.0,6.0,83,0.00,,,0.01,VWS V14.01,2013-07-11 00:29:00,
2013-07-10 20:30:00,75.4,69.9,29.81,South,169,0.0,6.0,83,0.00,,,0.01,VWS V14.01,2013-07-11 00:30:00,
2013-07-10 20:31:00,75.4,69.9,29.81,South,169,0.0,6.0,83,0.00,,,0.01,VWS V14.01,2013-07-11 00:31:00,
2013-07-10 20:35:00,75.4,69.9,29.81,South,169,0.0,6.0,83,0.00,,,0.01,VWS V14.01,2013-07-11 00:35:00,
2013-07-10 20:37:00,75.3,69.8,29.81,South,169,0.0,0.0,83,0.00,,,0.01,VWS V14.01,2013-07-11 00:37:00,
2013-07-10 20:38:00,75.3,69.8,29.81,South,169,0.0,0.0,83,0.00,,,0.01,VWS V14.01,2013-07-11 00:38:00,
2013-07-10 20:40:00,75.3,70.1,29.81,South,169,0.0,0.0,84,0.00,,,0.01,VWS V14.01,2013-07-11 00:40:00,
2013-07-10 20:43:00,75.3,70.1,29.81,South,169,0.0,0.0,84,0.00,,,0.01,VWS V14.01,2013-07-11 00:43:00,
2013-07-10 20:44:00,75.3,70.1,29.81,SSE,168,0.0,0.0,84,0.00,,,0.01,VWS V14.01,2013-07-11 00:44:00,
2013-07-10 20:45:00,75.3,70.1,29.81,South,169,0.0,0.0,84,0.00,,,0.01,VWS V14.01,2013-07-11 00:45:00,
2013-07-10 20:48:00,75.3,70.1,29.81,South,169,0.0,0.0,84,0.00,,,0.01,VWS V14.01,2013-07-11 00:48:00,
2013-07-10 20:50:00,75.3,70.1,29.80,SSE,168,0.0,0.0,84,0.00,,,0.01,VWS V14.01,2013-07-11 00:50:00,
2013-07-10 20:51:00,75.3,70.1,29.80,South,169,0.0,0.0,84,0.00,,,0.01,VWS V14.01,2013-07-11 00:51:00,
2013-07-10 20:56:00,75.1,69.6,29.80,South,169,0.0,5.0,83,0.00,,,0.01,VWS V14.01,2013-07-11 00:56:00,
2013-07-10 20:57:00,75.1,69.6,29.80,South,169,0.0,5.0,83,0.00,,,0.01,VWS V14.01,2013-07-11 00:57:00,
2013-07-10 20:58:00,75.1,69.6,29.80,SSE,168,0.0,5.0,83,0.00,,,0.01,VWS V14.01,2013-07-11 00:58:00,
2013-07-10 20:59:00,75.1,69.6,29.80,South,169,0.0,5.0,83,0.00,,,0.01,VWS V14.01,2013-07-11 00:59:00,
2013-07-10 21:02:00,75.1,69.9,29.80,SSE,168,0.0,5.0,84,0.00,,,0.01,VWS V14.01,2013-07-11 01:02:00,
2013-07-10 21:03:00,75.1,69.9,29.80,SSE,168,0.0,5.0,84,0.00,,,0.01,VWS V14.01,2013-07-11 01:03:00,
2013-07-10 21:05:00,75.1,69.9,29.81,South,169,0.0,5.0,84,0.00,,,0.01,VWS V14.01,2013-07-11 01:05:00,
2013-07-10 21:06:00,75.1,69.9,29.81,South,169,0.0,0.0,84,0.00,,,0.01,VWS V14.01,2013-07-11 01:06:00,
2013-07-10 21:08:00,75.1,69.9,29.81,South,169,0.0,0.0,84,0.00,,,0.01,VWS V14.01,2013-07-11 01:08:00,
2013-07-10 21:09:00,75.1,69.9,29.81,South,169,0.0,0.0,84,0.00,,,0.01,VWS V14.01,2013-07-11 01:09:00,
2013-07-10 21:11:00,75.3,70.5,29.81,South,169,0.0,4.0,85,0.00,,,0.01,VWS V14.01,2013-07-11 01:11:00,
2013-07-10 21:13:00,75.4,70.6,29.81,SSE,168,0.0,4.0,85,0.00,,,0.01,VWS V14.01,2013-07-11 01:13:00,
2013-07-10 21:15:00,75.4,70.6,29.81,South,169,0.0,4.0,85,0.00,,,0.01,VWS V14.01,2013-07-11 01:15:00,
2013-07-10 21:16:00,75.6,70.8,29.81,South,169,0.0,4.0,85,0.00,,,0.01,VWS V14.01,2013-07-11 01:16:00,
2013-07-10 21:19:00,75.8,71.3,29.81,SSW,209,6.0,8.0,86,0.00,,,0.01,VWS V14.01,2013-07-11 01:19:00,
2013-07-10 21:21:00,76.3,72.2,29.81,WSW,238,7.0,8.0,87,0.00,,,0.01,VWS V14.01,2013-07-11 01:21:00,
2013-07-10 21:22:00,76.7,72.9,29.81,SW,236,5.0,8.0,88,0.00,,,0.01,VWS V14.01,2013-07-11 01:22:00,
2013-07-10 21:25:00,77.4,73.6,29.81,SW,232,10.0,12.0,88,0.00,,,0.01,VWS V14.01,2013-07-11 01:25:00,
2013-07-10 21:26:00,77.7,74.2,29.81,SSW,211,6.0,12.0,89,0.00,,,0.01,VWS V14.01,2013-07-11 01:26:00,
2013-07-10 21:31:00,78.5,74.7,29.81,WSW,248,5.0,12.0,88,0.00,,,0.01,VWS V14.01,2013-07-11 01:31:00,
2013-07-10 21:32:00,78.6,74.8,29.81,WSW,240,6.0,12.0,88,0.00,,,0.01,VWS V14.01,2013-07-11 01:32:00,
2013-07-10 21:33:00,78.8,74.9,29.81,WSW,239,5.0,12.0,88,0.00,,,0.01,VWS V14.01,2013-07-11 01:33:00,
2013-07-10 21:34:00,78.8,74.9,29.82,WSW,239,13.0,13.0,88,0.00,,,0.01,VWS V14.01,2013-07-11 01:34:00,
2013-07-10 21:36:00,79.2,75.3,29.82,SW,226,7.0,10.0,88,0.00,,,0.01,VWS V14.01,2013-07-11 01:36:00,
2013-07-10 21:37:00,79.2,75.3,29.82,WSW,252,4.0,10.0,88,0.00,,,0.01,VWS V14.01,2013-07-11 01:37:00,
2013-07-10 21:40:00,79.4,75.5,29.82,SW,220,4.0,12.0,88,0.00,,,0.01,VWS V14.01,2013-07-11 01:40:00,
2013-07-10 21:43:00,79.6,75.7,29.82,SW,229,6.0,12.0,88,0.00,,,0.01,VWS V14.01,2013-07-11 01:43:00,
2013-07-10 21:45:00,79.8,75.6,29.82,SW,235,5.0,12.0,87,0.00,,,0.01,VWS V14.01,2013-07-11 01:45:00,
2013-07-10 21:47:00,79.8,75.6,29.82,SW,219,8.0,12.0,87,0.00,,,0.01,VWS V14.01,2013-07-11 01:47:00,
2013-07-10 21:50:00,79.9,75.7,29.82,SW,235,6.0,12.0,87,0.00,,,0.01,VWS V14.01,2013-07-11 01:50:00,
2013-07-10 21:51:00,79.9,75.7,29.82,SW,233,4.0,12.0,87,0.00,,,0.01,VWS V14.01,2013-07-11 01:51:00,
2013-07-10 21:52:00,80.1,75.9,29.82,SW,227,5.0,12.0,87,0.00,,,0.01,VWS V14.01,2013-07-11 01:52:00,
2013-07-10 21:54:00,80.1,75.5,29.82,SW,220,5.0,12.0,86,0.00,,,0.01,VWS V14.01,2013-07-11 01:54:00,
2013-07-10 21:57:00,80.1,75.5,29.82,SW,232,9.0,13.0,86,0.00,,,0.01,VWS V14.01,2013-07-11 01:57:00,
2013-07-10 21:58:00,80.3,75.7,29.82,SW,227,5.0,13.0,86,0.00,,,0.01,VWS V14.01,2013-07-11 01:58:00,
2013-07-10 22:01:00,80.3,75.7,29.82,SW,231,8.0,13.0,86,0.00,,,0.01,VWS V14.01,2013-07-11 02:01:00,
2013-07-10 22:02:00,80.3,75.7,29.82,SW,228,7.0,13.0,86,0.00,,,0.01,VWS V14.01,2013-07-11 02:02:00,
2013-07-10 22:05:00,80.3,75.4,29.82,SW,232,5.0,13.0,85,0.00,,,0.01,VWS V14.01,2013-07-11 02:05:00,
2013-07-10 22:07:00,80.5,75.6,29.82,WSW,250,8.0,11.0,85,0.00,,,0.01,VWS V14.01,2013-07-11 02:07:00,
2013-07-10 22:11:00,80.5,75.6,29.82,SW,236,6.0,12.0,85,0.00,,,0.01,VWS V14.01,2013-07-11 02:11:00,
2013-07-10 22:12:00,80.5,75.6,29.82,West,273,5.0,12.0,85,0.00,,,0.01,VWS V14.01,2013-07-11 02:12:00,
2013-07-10 22:14:00,80.5,75.6,29.82,WSW,240,5.0,12.0,85,0.00,,,0.01,VWS V14.01,2013-07-11 02:14:00,
2013-07-10 22:16:00,80.5,75.6,29.82,SW,221,7.0,12.0,85,0.00,,,0.01,VWS V14.01,2013-07-11 02:16:00,
2013-07-10 22:19:00,80.7,75.8,29.82,WSW,247,4.0,12.0,85,0.00,,,0.01,VWS V14.01,2013-07-11 02:19:00,
2013-07-10 22:20:00,80.7,75.8,29.82,SW,229,7.0,12.0,85,0.00,,,0.01,VWS V14.01,2013-07-11 02:20:00,
2013-07-10 22:22:00,80.7,75.8,29.82,WSW,238,6.0,12.0,85,0.00,,,0.01,VWS V14.01,2013-07-11 02:22:00,
2013-07-10 22:23:00,80.7,75.8,29.82,WSW,241,2.0,12.0,85,0.00,,,0.01,VWS V14.01,2013-07-11 02:23:00,
2013-07-10 22:26:00,80.7,75.8,29.82,WSW,240,6.0,12.0,85,0.00,,,0.01,VWS V14.01,2013-07-11 02:26:00,
2013-07-10 22:27:00,80.7,75.8,29.82,SW,231,6.0,12.0,85,0.00,,,0.01,VWS V14.01,2013-07-11 02:27:00,
2013-07-10 22:28:00,80.7,75.8,29.82,SW,223,5.0,12.0,85,0.00,,,0.01,VWS V14.01,2013-07-11 02:28:00,
2013-07-10 22:32:00,80.7,75.8,29.82,SW,229,8.0,12.0,85,0.00,,,0.01,VWS V14.01,2013-07-11 02:32:00,
2013-07-10 22:33:00,80.7,75.8,29.82,WSW,246,9.0,12.0,85,0.00,,,0.01,VWS V14.01,2013-07-11 02:33:00,
2013-07-10 22:35:00,80.7,75.8,29.82,WSW,242,6.0,12.0,85,0.00,,,0.01,VWS V14.01,2013-07-11 02:35:00,
2013-07-10 22:37:00,80.7,75.8,29.82,WSW,238,7.0,10.0,85,0.00,,,0.01,VWS V14.01,2013-07-11 02:37:00,
2013-07-10 22:38:00,80.7,75.8,29.82,SW,225,4.0,10.0,85,0.00,,,0.01,VWS V14.01,2013-07-11 02:38:00,
2013-07-10 22:41:00,80.7,75.8,29.82,SW,234,2.0,10.0,85,0.00,,,0.01,VWS V14.01,2013-07-11 02:41:00,
2013-07-10 22:42:00,80.7,75.8,29.82,WSW,244,9.0,10.0,85,0.00,,,0.01,VWS V14.01,2013-07-11 02:42:00,
2013-07-10 22:44:00,80.7,75.8,29.82,WSW,240,0.0,10.0,85,0.00,,,0.01,VWS V14.01,2013-07-11 02:44:00,
2013-07-10 22:47:00,80.7,75.8,29.82,SW,228,4.0,11.0,85,0.00,,,0.01,VWS V14.01,2013-07-11 02:47:00,
2013-07-10 22:48:00,80.7,75.8,29.82,SW,229,8.0,11.0,85,0.00,,,0.01,VWS V14.01,2013-07-11 02:48:00,
2013-07-10 22:51:00,80.7,75.8,29.81,SW,229,10.0,11.0,85,0.00,,,0.01,VWS V14.01,2013-07-11 02:51:00,
2013-07-10 22:52:00,80.5,75.6,29.81,SW,225,5.0,11.0,85,0.00,,,0.01,VWS V14.01,2013-07-11 02:52:00,
2013-07-10 22:53:00,80.5,75.6,29.81,SW,236,5.0,11.0,85,0.00,,,0.01,VWS V14.01,2013-07-11 02:53:00,
2013-07-10 22:54:00,80.5,75.6,29.81,SW,235,0.0,11.0,85,0.00,,,0.01,VWS V14.01,2013-07-11 02:54:00,
2013-07-10 22:56:00,80.5,75.6,29.81,SW,217,10.0,11.0,85,0.00,,,0.01,VWS V14.01,2013-07-11 02:56:00,
2013-07-10 22:58:00,80.5,75.6,29.81,WSW,242,0.0,11.0,85,0.00,,,0.01,VWS V14.01,2013-07-11 02:58:00,
2013-07-10 23:00:00,80.5,75.6,29.81,WSW,237,4.0,11.0,85,0.00,,,0.01,VWS V14.01,2013-07-11 03:00:00,
2013-07-10 23:02:00,80.5,75.6,29.81,SW,229,8.0,11.0,85,0.00,,,0.01,VWS V14.01,2013-07-11 03:02:00,
2013-07-10 23:04:00,80.5,75.6,29.80,SW,234,2.0,11.0,85,0.00,,,0.01,VWS V14.01,2013-07-11 03:04:00,
2013-07-10 23:05:00,80.5,75.6,29.80,SW,236,4.0,4.0,85,0.00,,,0.01,VWS V14.01,2013-07-11 03:05:00,
2013-07-10 23:07:00,80.3,75.4,29.80,WSW,246,0.0,8.0,85,0.00,,,0.01,VWS V14.01,2013-07-11 03:07:00,
2013-07-10 23:08:00,80.3,75.4,29.80,WSW,238,0.0,8.0,85,0.00,,,0.01,VWS V14.01,2013-07-11 03:08:00,
2013-07-10 23:13:00,80.3,75.4,29.80,SW,232,0.0,8.0,85,0.00,,,0.01,VWS V14.01,2013-07-11 03:13:00,
2013-07-10 23:14:00,80.3,75.4,29.80,WSW,237,2.0,8.0,85,0.00,,,0.01,VWS V14.01,2013-07-11 03:14:00,
2013-07-10 23:17:00,80.3,75.4,29.80,WSW,242,7.0,8.0,85,0.00,,,0.01,VWS V14.01,2013-07-11 03:17:00,
2013-07-10 23:18:00,80.3,75.4,29.80,SW,223,3.0,8.0,85,0.00,,,0.01,VWS V14.01,2013-07-11 03:18:00,
2013-07-10 23:23:00,80.1,75.2,29.80,SW,226,6.0,8.0,85,0.00,,,0.01,VWS V14.01,2013-07-11 03:23:00,
2013-07-10 23:24:00,80.1,75.5,29.80,SW,232,3.0,9.0,86,0.00,,,0.01,VWS V14.01,2013-07-11 03:24:00,
2013-07-10 23:25:00,80.1,75.5,29.80,SW,227,4.0,9.0,86,0.00,,,0.01,VWS V14.01,2013-07-11 03:25:00,
2013-07-10 23:27:00,80.1,75.5,29.80,SW,234,5.0,9.0,86,0.00,,,0.01,VWS V14.01,2013-07-11 03:27:00,
2013-07-10 23:30:00,80.1,75.5,29.80,SW,222,4.0,9.0,86,0.00,,,0.01,VWS V14.01,2013-07-11 03:30:00,
2013-07-10 23:31:00,80.1,75.5,29.80,SW,223,0.0,9.0,86,0.00,,,0.01,VWS V14.01,2013-07-11 03:31:00,
2013-07-10 23:34:00,80.1,75.5,29.80,SW,234,7.0,9.0,86,0.00,,,0.01,VWS V14.01,2013-07-11 03:34:00,
2013-07-10 23:37:00,79.9,75.3,29.79,WSW,238,6.0,9.0,86,0.00,,,0.01,VWS V14.01,2013-07-11 03:37:00,
2013-07-10 23:38:00,79.9,75.3,29.79,SW,229,0.0,9.0,86,0.00,,,0.01,VWS V14.01,2013-07-11 03:38:00,
2013-07-10 23:41:00,79.9,75.3,29.79,WSW,241,5.0,10.0,86,0.00,,,0.01,VWS V14.01,2013-07-11 03:41:00,
2013-07-10 23:42:00,79.9,75.3,29.79,WSW,241,0.0,10.0,86,0.00,,,0.01,VWS V14.01,2013-07-11 03:42:00,
2013-07-10 23:45:00,79.9,75.3,29.79,WSW,243,0.0,10.0,86,0.00,,,0.01,VWS V14.01,2013-07-11 03:45:00,
2013-07-10 23:46:00,79.9,75.3,29.79,SW,236,4.0,10.0,86,0.00,,,0.01,VWS V14.01,2013-07-11 03:46:00,
2013-07-10 23:47:00,79.9,75.3,29.79,SW,234,4.0,10.0,86,0.00,,,0.01,VWS V14.01,2013-07-11 03:47:00,
2013-07-10 23:49:00,79.9,75.3,29.79,SW,229,8.0,10.0,86,0.00,,,0.01,VWS V14.01,2013-07-11 03:49:00,
2013-07-10 23:51:00,79.9,75.3,29.79,WSW,242,0.0,10.0,86,0.00,,,0.01,VWS V14.01,2013-07-11 03:51:00,
2013-07-10 23:54:00,79.9,75.3,29.79,WSW,254,5.0,10.0,86,0.00,,,0.01,VWS V14.01,2013-07-11 03:54:00,
2013-07-10 23:56:00,79.9,75.3,29.79,SW,231,0.0,10.0,86,0.00,,,0.01,VWS V14.01,2013-07-11 03:56:00,
2013-07-10 23:57:00,79.8,75.2,29.79,SW,234,2.0,10.0,86,0.00,,,0.01,VWS V14.01,2013-07-11 03:57:00,
2013-07-10 23:59:00,79.8,75.2,29.79,SW,234,0.0,10.0,86,0.00,,,0.01,VWS V14.01,2013-07-11 03:59:00,